GFSMW_sfc_temp_000.txt.gz
Temp
80 80 79 79 80 80 82 79 74 74 76 74 71 68 66 69 69 70 70 70 69 68 65 64 64 63 62 61 62 61 60 61 61 62 62 63 63 63 64 66 67 66 66
78 78 77 77 76 76 75 73 73 73 73 72 69 68 68 68 69 69 68 69 66 67 67 63 63 62 60 59 59 59 58 59 60 58 58 55 59 60 63 65 65 66 68
74 75 75 73 72 72 72 73 72 70 68 70 71 68 68 66 65 65 65 66 66 67 65 63 62 61 59 57 57 57 56 54 56 56 53 50 50 55 59 60 64 59 61
76 76 73 71 70 69 70 71 71 71 70 68 67 65 63 62 64 64 64 64 64 63 64 62 60 59 57 56 56 60 54 53 51 53 57 52 49 44 45 53 56 59 57
73 72 72 71 71 69 68 70 70 71 70 67 65 63 62 61 61 60 60 61 61 61 61 60 57 56 56 55 55 54 52 52 48 48 47 46 47 47 41 42 43 48 50
72 72 73 72 70 69 68 68 69 70 69 67 65 62 60 59 59 59 57 57 57 57 58 59 56 55 54 54 53 52 50 46 46 47 46 43 44 43 42 41 40 40 44
71 72 72 71 70 69 69 69 69 69 69 66 65 64 62 60 59 57 55 54 54 54 54 55 54 53 53 54 54 51 49 46 44 44 44 43 42 42 43 41 39 38 42
70 70 70 70 70 69 69 68 68 67 68 66 65 63 61 59 58 56 54 53 52 53 54 54 54 53 51 50 49 47 47 46 45 46 46 43 42 42 41 40 37 34 36
70 70 72 70 70 69 68 67 67 67 67 65 62 59 58 57 56 55 54 54 54 56 52 51 51 51 50 48 46 44 44 43 43 43 42 41 42 42 43 42 42 38 33
70 69 70 69 69 68 66 65 65 65 64 61 58 58 57 58 57 56 54 53 52 52 51 50 49 49 48 48 47 43 44 44 42 43 43 41 44 45 44 43 42 41 39
68 69 68 68 68 67 66 64 62 62 61 60 58 57 56 56 56 54 52 51 50 50 49 49 48 48 47 44 43 42 43 43 41 42 43 43 44 43 44 45 44 43 41
66 66 65 64 64 63 63 62 60 59 59 58 57 56 56 56 54 52 51 50 49 49 49 48 47 46 45 43 41 41 42 42 41 42 42 43 47 43 43 44 43 42 42
65 65 63 63 63 62 61 60 59 59 59 59 57 57 55 53 51 51 50 50 48 48 47 47 45 45 45 44 43 43 43 41 40 41 41 42 41 39 39 40 39 41 44
61 61 61 60 60 59 59 60 59 57 57 58 56 54 52 51 50 50 49 48 48 47 46 46 46 45 45 46 43 42 39 38 39 39 39 39 40 39 38 38 36 39 35
59 58 57 58 59 58 59 60 59 59 57 55 55 53 53 52 51 49 48 48 47 47 46 45 44 44 44 40 36 37 36 35 35 36 38 39 41 42 39 41 35 34 32
56 57 58 58 58 58 58 59 58 59 58 57 54 55 54 51 49 48 47 46 46 45 44 43 43 41 45 35 34 33 31 34 33 32 34 37 39 40 40 39 39 35 30
55 55 57 58 58 57 58 57 58 59 57 56 56 53 47 46 47 48 48 46 43 43 41 41 41 40 38 35 34 33 32 31 31 32 33 35 39 37 38 36 36 36 36
54 56 57 57 57 58 58 57 58 56 56 56 55 51 48 47 48 47 46 45 43 41 40 40 40 38 39 37 36 33 29 30 30 31 31 32 32 33 34 32 30 31 32
57 58 59 58 57 57 57 55 54 55 55 54 51 50 47 48 47 45 44 43 41 40 40 40 37 35 35 37 35 32 28 28 28 30 31 32 31 34 35 31 28 28 30
59 59 58 58 57 56 55 53 52 52 50 48 48 48 49 47 45 44 43 42 41 41 39 36 35 36 33 36 35 32 26 25 27 29 30 32 32 30 30 28 28 26 29
59 58 58 55 55 55 54 51 51 49 51 50 48 46 46 47 46 44 43 41 40 37 33 32 32 33 33 32 34 32 27 26 25 26 27 29 30 29 30 30 27 26 29
57 58 55 54 54 55 53 50 49 50 49 48 46 46 46 47 48 43 40 40 38 34 30 28 30 30 30 34 33 30 30 29 25 24 27 27 30 30 29 29 29 29 28
56 57 54 52 53 54 53 49 49 49 47 46 45 45 46 47 45 40 38 37 36 31 29 30 28 28 29 29 30 29 29 28 25 25 26 28 28 28 28 29 29 27 25
55 55 52 52 51 52 52 49 49 48 45 43 43 43 42 41 41 42 40 36 31 29 29 27 25 25 26 25 25 25 25 26 25 25 24 26 26 25 26 27 28 27 27
54 53 51 50 49 50 49 48 47 45 43 41 41 39 36 38 39 41 35 32 32 30 27 25 24 19 18 23 27 26 24 23 24 23 24 23 22 22 24 24 25 26 25
51 51 50 49 49 49 46 45 44 42 37 35 36 36 35 35 36 36 35 33 32 32 31 29 24 21 27 28 28 28 28 27 26 23 21 19 20 20 22 22 22 23 23

GFSMW_sfc_temp_003.txt.gz
Temp
69 70 70 69 68 69 68 65 63 63 65 60 60 59 60 60 61 62 63 63 64 65 62 59 58 57 57 55 56 55 55 56 55 53 58 56 57 58 58 58 57 59 61
67 68 66 65 62 65 65 63 62 61 62 60 59 60 60 61 61 61 62 63 61 61 62 58 57 56 55 54 54 54 52 52 53 50 51 47 53 54 57 56 57 54 56
63 65 65 61 62 62 62 63 63 62 61 61 62 61 59 58 58 59 59 60 59 59 58 57 55 54 53 52 52 52 51 49 50 51 47 42 41 45 50 53 54 50 51
64 65 62 59 60 58 61 62 63 64 64 61 58 56 54 54 55 55 55 56 57 57 58 56 54 52 51 51 50 55 49 48 45 47 51 46 44 39 38 46 50 50 49
61 60 60 61 60 60 59 60 62 63 63 61 59 56 54 54 54 54 52 52 53 54 55 54 52 51 50 49 48 47 46 45 44 44 43 42 42 46 43 39 40 45 46
60 61 61 62 60 59 60 61 62 62 61 60 60 57 55 54 51 50 49 50 50 51 53 54 51 51 49 48 47 46 45 43 46 47 46 44 42 38 37 36 39 38 41
60 60 60 59 59 58 59 60 61 62 61 58 57 56 54 52 49 49 48 49 49 49 50 49 48 47 47 47 45 44 43 42 40 40 40 40 40 40 39 38 40 37 39
60 60 61 59 60 61 61 60 62 62 63 58 55 53 52 50 50 53 52 51 48 48 49 47 47 47 47 45 43 42 42 43 40 40 41 40 42 39 38 37 35 36 37
59 61 64 65 63 63 59 58 59 59 57 55 52 52 54 54 52 54 51 47 48 52 47 46 45 45 45 44 44 41 40 40 39 39 39 40 40 38 39 40 41 37 32
60 60 61 58 57 57 56 56 56 55 54 52 52 54 54 54 52 48 47 46 46 47 46 45 44 44 44 43 41 39 38 38 37 40 38 38 39 42 40 39 38 39 37
56 56 56 56 56 55 55 54 54 55 52 55 55 54 54 51 49 47 46 46 45 45 45 45 44 43 42 41 39 38 38 38 38 38 38 39 41 40 40 40 40 39 38
55 55 55 55 54 53 54 53 53 52 52 53 52 50 50 51 47 46 46 45 45 45 44 43 42 42 41 39 38 37 38 37 36 36 36 36 42 37 40 41 41 41 41
54 53 53 53 53 53 53 52 52 52 53 52 51 49 51 48 46 46 45 45 44 43 43 42 41 41 40 39 38 37 36 35 35 34 34 35 35 34 36 36 34 35 39
53 52 51 51 52 52 51 51 51 51 51 51 49 48 47 48 45 46 45 45 45 43 42 42 42 41 40 38 37 36 33 32 33 33 33 34 34 34 33 36 34 36 31
52 51 51 50 50 50 50 51 50 50 52 52 50 47 47 46 44 43 45 45 44 42 42 41 40 39 39 38 32 32 30 30 30 31 33 34 35 39 38 37 34 31 29
50 50 51 51 51 51 50 50 49 49 51 50 50 52 44 43 43 45 43 43 42 41 40 39 38 36 39 34 34 31 28 30 29 28 30 31 34 35 37 35 35 34 29
48 49 50 51 50 49 49 46 47 48 48 49 50 45 44 43 43 43 43 43 41 38 37 36 36 35 31 34 34 34 29 28 27 27 28 30 34 32 33 34 34 33 34
49 49 49 49 48 47 47 47 47 47 46 45 46 45 43 42 43 43 43 41 40 37 35 34 34 33 35 35 36 33 27 27 28 29 30 29 29 30 31 30 29 29 29
49 49 49 48 46 46 46 46 45 45 45 43 43 43 42 42 42 41 41 40 37 34 34 34 32 31 31 36 34 31 26 27 27 30 30 30 29 32 33 29 27 27 28
50 49 49 48 45 45 46 44 43 43 42 43 42 42 41 41 40 40 39 36 36 36 33 32 32 33 29 34 34 31 24 22 24 26 28 30 30 30 29 27 24 22 25
49 51 47 45 45 46 45 43 42 41 43 43 43 42 41 40 40 39 38 36 33 31 28 29 29 30 30 29 31 31 24 24 24 24 25 27 29 30 30 30 26 24 27
49 49 46 45 46 46 44 42 40 43 43 42 41 40 40 41 43 37 36 35 30 29 25 21 21 24 25 31 29 30 29 29 22 23 25 25 29 29 29 28 29 29 27
46 47 44 45 45 44 44 41 41 42 40 39 38 38 40 41 40 37 33 31 28 24 23 24 17 20 23 21 28 28 28 28 24 24 25 27 27 27 26 27 28 26 26
43 45 44 43 42 44 45 42 41 40 38 36 36 36 34 35 36 36 32 29 22 21 25 22 19 17 19 17 20 22 21 25 25 24 24 24 25 24 25 25 25 25 24
43 43 42 42 43 43 42 42 41 39 37 35 35 32 30 31 32 33 30 27 28 27 21 19 20 8 7 16 28 27 25 24 24 23 20 21 22 21 22 23 23 23 24
42 42 42 42 43 40 39 39 40 37 33 32 29 28 28 27 30 30 28 33 33 33 32 30 21 14 25 29 30 30 30 29 27 22 19 18 18 18 20 19 20 21 22

GFSMW_sfc_temp_006.txt.gz
Temp
63 63 63 63 63 62 61 59 59 63 63 57 56 55 57 58 58 58 59 59 60 59 57 54 54 54 53 52 52 51 50 51 51 49 54 51 53 52 52 51 51 53 54
61 62 61 59 57 59 59 58 59 59 59 57 56 57 56 56 57 60 61 58 57 57 58 53 52 52 51 50 49 49 48 49 49 47 45 46 52 49 51 49 50 46 49
59 60 59 56 56 57 58 60 59 59 58 59 57 56 56 56 56 55 54 56 55 55 54 52 51 50 50 48 48 47 46 45 46 46 44 40 38 40 46 47 46 44 44
60 60 57 56 56 55 56 59 60 60 60 59 56 56 54 52 52 51 51 51 52 53 54 52 50 49 48 47 46 49 45 45 42 44 48 44 42 41 40 43 47 45 46
57 56 57 57 57 56 56 57 59 60 59 58 57 54 53 51 50 49 49 50 50 52 52 50 51 50 48 46 45 44 43 43 42 41 41 41 41 44 38 36 39 43 42
55 57 57 59 57 56 57 57 59 60 59 57 56 55 52 50 48 48 47 48 48 49 49 50 46 45 44 43 43 42 41 40 40 39 40 39 38 37 36 37 36 38 39
54 55 56 56 57 55 57 57 58 59 59 56 52 51 49 48 48 48 50 51 51 49 47 46 44 43 43 43 42 41 42 42 41 40 39 40 38 39 38 37 37 35 39
56 55 55 55 55 56 55 55 55 53 53 52 50 50 50 51 52 52 48 48 47 46 45 44 44 44 44 42 41 39 39 39 38 36 37 37 37 37 36 38 36 34 37
54 55 54 54 55 55 53 55 56 54 52 52 51 51 53 53 52 52 49 48 45 47 44 44 43 43 43 42 40 38 37 36 36 36 36 36 37 37 38 40 37 33 30
53 54 54 52 52 53 55 56 55 53 52 51 52 55 53 52 49 46 44 44 44 45 44 43 42 42 41 40 39 37 37 36 35 37 35 35 36 37 39 39 38 36 33
51 52 52 52 52 53 52 52 50 51 50 50 50 49 48 48 46 44 46 44 44 45 46 44 43 42 40 39 37 36 36 36 35 35 34 34 35 33 34 35 37 37 36
52 51 51 51 50 50 50 49 49 50 50 49 49 48 47 47 45 44 43 43 44 43 44 44 42 40 39 37 36 35 36 34 33 33 32 32 37 32 33 33 33 34 36
49 49 49 49 49 48 49 48 47 46 47 48 47 46 47 45 44 43 43 43 42 44 44 43 41 39 39 38 36 35 34 32 32 31 31 31 31 30 31 31 32 33 37
48 48 48 47 47 47 47 46 46 46 46 46 45 44 45 45 42 41 41 43 43 43 42 41 41 40 39 37 35 34 31 31 31 32 31 30 29 29 29 31 31 33 30
48 49 47 46 45 46 45 46 45 45 46 45 44 43 42 41 42 43 42 42 42 43 42 41 39 37 37 36 32 32 31 30 30 30 30 30 32 35 35 33 30 28 27
47 47 47 46 47 46 44 45 45 45 45 43 43 43 43 43 41 41 40 39 39 41 41 39 36 35 38 35 35 33 29 30 29 27 28 28 31 31 33 33 34 34 29
46 46 45 47 45 44 45 44 44 45 44 43 43 43 42 41 40 40 39 39 38 41 37 35 34 32 31 35 35 34 30 28 26 26 27 28 32 31 30 31 33 32 33
47 46 46 46 45 44 44 44 44 43 42 41 41 41 41 39 39 39 38 38 40 37 34 31 32 31 33 35 35 33 28 26 27 27 27 27 27 29 29 29 29 29 29
47 46 46 46 43 43 44 43 42 42 41 41 40 40 40 39 38 38 37 37 36 33 32 32 31 29 29 34 34 31 25 25 25 28 28 28 27 29 32 28 26 26 28
47 47 45 44 43 44 43 42 41 40 39 40 40 40 39 38 38 36 35 34 34 33 33 30 29 31 27 32 32 30 21 19 23 25 27 28 28 30 30 27 25 23 25
47 47 44 43 43 43 42 41 40 39 41 41 40 39 39 37 37 35 34 34 32 31 27 27 27 28 28 27 31 31 23 22 23 23 24 25 28 29 30 30 25 25 27
44 44 43 42 42 42 42 40 38 40 40 39 38 37 37 38 39 35 34 32 31 27 23 17 19 21 22 30 29 30 29 28 18 22 24 24 28 28 28 27 28 28 26
41 43 40 40 41 42 41 39 39 39 38 36 35 35 35 35 35 32 29 28 26 22 22 24 16 19 22 19 28 28 29 28 22 23 26 27 27 26 26 27 26 25 23
40 40 40 38 38 40 40 39 39 39 36 35 34 33 32 32 32 31 30 27 20 19 24 21 19 16 18 16 19 20 17 23 24 23 23 23 25 23 24 24 24 24 23
39 39 37 37 37 39 38 38 38 37 35 34 34 32 28 29 30 30 28 27 28 27 21 19 19 7 7 16 26 27 22 20 21 17 17 19 19 19 19 19 21 22 23
37 37 37 36 37 37 36 36 35 34 34 32 31 28 26 25 29 29 29 33 33 32 33 30 21 13 23 29 30 30 29 28 27 15 13 12 13 16 17 15 16 19 20

GFSMW_sfc_temp_009.txt.gz
Temp
56 58 58 58 59 57 58 57 59 60 58 56 55 54 53 54 54 56 56 56 57 57 52 51 51 51 50 48 49 48 48 48 48 46 50 48 49 50 47 47 47 48 49
57 58 58 57 55 56 56 58 57 57 56 55 54 54 53 54 57 58 57 56 54 53 53 50 49 49 48 47 46 46 45 45 45 43 42 41 46 45 49 45 47 43 45
55 56 57 55 55 56 56 57 57 58 57 57 55 54 54 54 53 51 50 51 52 52 51 50 48 47 46 45 44 44 43 42 43 44 42 38 36 38 43 46 43 42 42
57 56 55 54 55 53 55 57 58 58 58 57 56 55 53 52 49 48 48 49 50 50 50 49 47 46 45 43 44 44 41 41 39 41 45 41 39 35 36 40 45 41 44
55 55 55 56 55 54 54 55 57 58 57 56 55 52 50 48 47 47 47 48 48 48 49 47 48 47 45 42 41 41 40 40 38 38 38 39 39 38 36 34 37 39 40
52 54 56 56 54 53 53 53 55 55 55 54 52 50 48 46 46 46 46 46 46 47 47 49 46 44 43 41 40 40 39 38 38 38 37 37 38 38 37 35 36 36 38
53 56 57 54 52 50 51 54 52 50 50 49 48 48 47 47 48 50 50 50 48 46 45 44 43 42 42 41 41 39 38 37 35 35 35 36 35 36 39 37 36 35 38
54 52 51 50 50 51 50 50 51 50 51 50 50 49 50 49 51 52 50 47 44 44 43 42 43 44 43 41 39 38 37 36 34 34 34 34 34 35 35 36 33 30 31
50 50 50 50 50 50 50 50 51 51 51 51 50 50 49 49 48 47 45 43 42 45 42 45 44 44 42 41 39 37 36 35 34 34 33 33 34 34 34 35 35 33 27
49 49 49 50 50 50 50 50 50 50 49 49 48 49 47 47 46 45 43 42 43 46 46 44 42 43 43 42 38 36 36 35 34 34 33 33 33 32 32 32 32 33 32
48 49 49 51 50 49 49 47 48 48 46 46 46 45 45 45 44 43 42 42 42 44 44 43 43 43 41 39 38 36 36 35 34 32 32 32 32 30 30 30 30 31 31
48 49 49 50 49 47 46 46 45 45 45 45 44 44 44 44 42 42 41 43 43 41 40 41 42 41 40 38 37 36 35 33 32 31 31 31 35 29 29 28 29 29 31
47 47 47 47 47 46 47 45 45 44 44 44 42 42 41 41 40 40 42 43 41 41 41 41 39 38 38 38 36 34 33 31 31 31 30 30 29 27 27 28 28 29 32
47 46 46 47 48 46 45 44 43 43 43 43 42 41 40 41 40 39 40 40 40 39 38 39 38 38 38 37 35 33 31 31 32 31 30 29 28 27 27 28 29 31 29
47 47 45 46 46 44 44 43 43 44 43 43 41 41 40 40 40 39 39 39 39 40 38 37 38 38 36 35 32 32 31 30 29 30 30 30 31 34 33 31 27 29 28
49 48 48 47 46 44 43 44 43 43 43 42 41 42 41 41 40 39 38 40 39 38 37 39 36 33 36 36 36 33 29 30 29 27 29 29 31 31 32 32 33 32 28
47 46 45 45 44 43 43 42 43 43 42 41 41 41 40 39 38 38 38 37 36 36 36 34 32 32 32 35 36 35 31 29 26 26 27 28 31 30 29 30 31 31 32
45 45 44 44 43 42 41 42 42 41 40 40 39 39 38 38 37 37 36 35 36 34 32 31 31 31 32 35 34 32 30 26 26 26 26 26 27 28 29 28 28 28 29
45 44 44 43 42 41 42 41 40 40 39 39 38 38 38 37 36 35 34 34 33 31 30 31 31 29 29 34 33 30 24 24 24 27 27 27 27 29 30 27 27 27 28
45 44 43 42 41 41 41 39 39 38 38 38 38 38 37 36 35 34 32 32 31 31 31 31 29 31 27 32 32 30 21 17 22 24 25 27 28 30 30 26 25 23 26
43 42 42 40 40 40 40 39 38 37 39 39 38 37 36 35 34 33 33 32 31 30 27 28 26 27 27 26 31 30 20 20 23 23 23 25 28 29 29 28 25 25 27
41 41 40 39 40 40 38 36 35 38 38 37 36 35 34 35 36 31 30 30 28 27 24 17 19 21 22 29 28 30 29 29 18 21 23 24 29 28 28 27 27 27 25
38 39 38 38 39 38 37 35 36 37 36 35 34 33 33 33 32 30 28 27 25 21 22 23 16 19 23 20 27 27 29 27 18 21 25 27 27 26 25 26 26 24 23
37 37 37 35 35 36 37 36 36 36 34 33 33 34 33 31 30 30 30 27 21 21 25 21 19 16 18 16 18 20 15 21 22 19 18 21 23 21 20 21 22 22 22
37 36 34 34 34 35 34 34 34 33 32 32 34 32 31 29 29 30 28 27 29 28 23 20 19 7 6 15 24 25 17 13 17 11 9 14 16 17 18 17 18 20 20
35 34 34 33 34 34 32 32 33 32 31 32 32 31 31 29 29 28 27 33 33 33 33 32 21 13 23 28 30 30 29 28 26 11 5 1 6 12 16 14 13 14 16

GFSMW_sfc_temp_012.txt.gz
Temp
53 54 55 56 57 56 57 57 57 57 56 54 54 53 52 52 53 53 54 56 57 55 51 49 49 48 47 46 46 46 46 46 45 45 47 46 48 47 47 47 46 47 48
53 55 55 54 55 54 55 56 56 56 56 55 53 53 52 52 52 52 51 51 51 51 51 48 47 46 46 45 44 44 44 44 43 42 41 39 43 45 48 45 46 44 45
52 54 55 53 53 53 54 55 55 55 55 55 53 52 52 52 50 49 48 48 50 49 48 48 46 46 45 44 42 42 42 40 41 41 40 36 34 38 43 45 43 42 42
53 55 54 54 54 52 53 54 55 55 56 55 54 53 50 49 46 46 46 46 48 48 48 48 46 45 44 45 42 43 41 41 37 40 43 40 38 36 35 40 43 42 44
52 56 54 54 52 53 52 52 54 54 54 53 51 49 46 45 45 45 46 46 46 48 48 47 45 45 43 41 41 39 39 39 37 37 36 37 37 38 38 34 38 43 43
50 52 53 55 55 52 51 51 50 49 50 49 48 48 46 45 46 46 46 45 45 45 45 46 43 42 41 40 39 39 38 37 36 36 36 35 35 34 35 33 34 34 39
48 50 51 53 50 48 49 50 49 49 49 49 49 48 48 47 47 47 45 46 45 44 43 42 41 41 42 44 42 39 38 36 35 34 34 35 34 35 34 34 34 32 34
51 51 48 47 48 48 48 48 49 49 49 48 48 48 47 46 46 45 45 44 42 42 41 41 41 41 43 43 42 41 37 37 36 35 34 33 34 34 34 33 30 28 29
46 47 48 48 48 48 48 48 49 49 48 47 46 45 46 45 44 44 43 42 42 43 41 41 42 41 43 41 39 36 37 37 36 34 34 33 34 33 33 33 32 29 25
46 47 47 47 47 47 46 48 48 47 46 45 45 45 44 44 43 41 41 41 40 42 44 43 42 42 41 41 40 38 36 35 34 34 33 32 32 31 31 30 30 30 27
45 46 46 47 47 50 48 49 47 47 45 44 44 43 43 42 41 40 40 39 40 42 42 42 40 39 40 38 36 35 34 34 33 33 32 32 32 30 30 30 30 29 29
46 46 46 48 48 47 48 45 45 46 45 44 43 41 41 41 40 39 39 39 40 40 40 39 41 40 37 36 34 34 34 33 32 32 31 31 35 30 29 28 28 28 29
45 45 45 48 47 46 45 46 46 46 43 42 41 41 40 39 39 39 39 39 38 38 39 41 40 37 36 36 36 33 33 32 32 31 30 30 30 28 27 27 27 28 30
45 44 44 46 44 46 47 46 44 42 42 42 40 40 39 39 38 38 37 37 38 39 41 38 37 36 37 36 34 33 32 31 31 31 30 29 29 28 27 28 28 29 27
44 44 44 43 46 46 44 43 42 42 42 41 40 40 39 39 38 38 37 37 37 41 40 36 37 36 36 36 32 33 31 30 29 30 30 30 31 34 33 31 28 28 27
45 47 46 47 46 44 42 42 41 41 41 40 39 40 39 39 38 37 37 37 36 36 35 35 34 33 35 36 36 34 30 30 29 28 28 28 30 30 32 31 32 31 27
47 47 47 46 45 43 41 40 41 41 40 39 40 39 38 37 37 36 36 35 34 34 36 33 32 30 31 36 36 33 30 28 27 26 26 27 30 29 28 29 30 31 31
47 46 44 43 43 40 40 40 40 39 38 38 38 38 37 36 36 35 34 34 34 33 32 30 30 30 32 34 34 32 27 26 26 26 26 25 26 27 29 28 28 29 30
44 44 44 42 41 40 40 39 38 38 38 37 37 37 36 35 34 33 32 31 31 31 31 31 30 29 29 33 33 30 25 25 25 27 27 27 26 28 31 27 26 27 28
45 45 42 41 39 39 38 38 37 37 36 37 37 36 36 34 33 32 31 31 31 32 31 30 29 31 27 31 32 30 21 18 22 24 26 27 27 30 30 26 24 23 26
42 41 41 39 38 39 38 36 35 34 36 36 36 36 35 33 33 31 30 30 29 29 26 27 27 28 27 26 30 31 20 21 23 23 23 25 27 30 30 29 25 25 26
40 40 39 38 38 37 36 34 33 35 35 35 34 34 33 34 35 30 29 29 27 26 22 17 20 22 22 28 28 30 29 28 15 20 22 22 28 28 27 26 27 26 24
39 39 37 37 37 36 34 33 34 34 33 32 32 32 32 33 32 29 28 27 25 20 21 24 17 20 23 21 27 28 29 27 16 19 23 26 26 25 24 24 25 23 22
39 37 36 35 34 34 34 33 33 33 31 31 31 31 31 32 32 31 30 27 20 19 24 21 21 17 18 16 18 19 16 20 21 17 16 17 21 18 19 20 20 19 20
37 36 35 33 33 33 33 32 32 31 30 31 31 31 30 31 30 30 28 27 28 27 22 21 20 11 7 16 22 24 16 11 16 9 7 10 13 16 17 18 18 17 17
35 35 34 33 32 32 30 30 30 30 29 32 32 33 32 32 29 29 28 32 33 33 33 32 23 15 24 28 30 31 30 28 25 11 4 -1 -1 7 14 15 15 14 13

GFSMW_sfc_temp_015.txt.gz
Temp
60 62 62 63 64 65 65 65 63 63 64 65 63 63 63 64 64 65 63 63 63 62 62 62 62 61 61 60 60 61 58 60 58 58 59 60 60 60 62 60 60 58 59
60 60 62 64 65 65 65 65 64 66 68 67 66 67 65 64 63 62 61 61 61 61 61 60 61 61 61 59 58 57 57 57 55 53 54 52 56 59 59 59 58 56 56
59 60 61 62 62 62 63 65 66 66 66 65 65 64 64 63 62 62 61 60 60 61 61 60 61 60 59 58 55 54 53 53 54 52 51 47 47 49 56 55 56 54 55
62 62 60 60 61 61 63 64 64 64 64 63 64 62 64 62 59 60 61 63 60 61 62 60 58 56 56 54 54 54 52 52 49 52 53 51 49 44 42 52 53 53 52
62 61 61 61 62 62 62 62 61 62 61 62 61 61 59 59 60 60 59 58 59 58 58 57 56 55 55 52 52 52 51 52 50 49 48 48 48 48 42 39 45 49 51
60 61 62 62 60 60 59 59 60 60 61 61 61 60 59 58 60 59 58 59 58 59 57 55 54 53 53 52 52 50 50 50 50 50 48 46 43 43 42 40 42 42 47
59 59 60 60 59 58 58 59 60 58 59 58 58 58 57 57 56 57 57 56 57 57 57 53 52 52 51 51 50 50 48 49 49 48 48 48 46 46 44 42 41 40 44
58 59 58 58 57 57 58 59 59 58 58 57 57 58 57 58 58 57 56 55 55 55 54 53 52 51 51 51 50 50 49 49 48 47 46 46 47 46 44 42 39 36 39
58 57 56 57 57 57 57 57 58 57 56 56 57 55 56 55 54 54 54 54 53 53 51 51 50 50 50 50 50 49 48 48 48 47 46 46 46 45 45 43 41 36 31
56 56 56 55 56 57 56 56 57 56 56 56 55 54 54 54 54 53 52 52 52 51 51 50 51 50 50 51 49 48 49 46 47 47 45 45 45 43 43 42 41 39 35
55 55 55 55 56 56 57 55 52 57 55 55 53 53 53 53 53 53 52 51 51 51 51 51 50 49 49 47 46 47 46 44 45 46 43 42 43 42 42 42 41 39 38
54 55 55 54 54 55 54 50 56 56 55 53 52 52 53 53 51 51 51 51 49 49 48 48 47 48 47 46 45 46 46 44 44 43 42 41 42 40 41 40 38 37 38
53 53 53 54 52 51 52 55 53 53 53 52 53 52 51 50 50 50 50 49 48 48 48 48 46 44 46 45 46 44 43 43 42 41 40 40 39 38 39 38 37 36 36
51 53 53 53 52 52 54 51 51 52 52 52 52 50 50 50 49 49 49 48 48 47 47 45 42 44 45 45 44 43 42 41 40 39 39 38 37 36 36 35 33 33 31
50 51 51 52 53 51 50 52 52 51 51 51 51 50 50 49 49 48 48 47 47 47 47 45 43 43 43 43 42 42 41 39 39 38 38 37 35 33 34 34 32 31 30
51 52 52 52 50 53 53 51 50 50 50 50 49 49 48 48 48 47 46 46 46 46 45 44 43 42 42 37 37 38 39 38 37 35 35 35 33 34 32 31 31 31 30
51 51 51 53 53 53 51 51 51 50 49 48 48 48 47 46 46 46 46 45 44 44 44 42 42 40 40 36 35 33 38 36 35 34 33 33 34 32 33 32 32 32 31
52 51 52 52 53 52 50 49 49 48 46 46 46 47 46 45 45 44 44 44 43 42 42 41 40 39 38 34 33 32 36 35 34 33 33 32 32 33 31 31 31 32 33
53 53 53 51 50 50 48 48 47 46 45 46 46 46 45 44 44 43 43 43 42 42 41 40 39 38 37 33 33 33 33 32 32 32 33 32 31 30 31 30 29 30 32
51 50 49 48 48 46 47 46 45 44 44 43 44 44 44 43 42 42 42 42 42 41 41 38 38 34 35 32 32 33 32 29 30 32 32 30 29 29 30 29 28 25 29
47 45 47 47 45 45 45 44 43 42 43 43 43 43 43 42 42 42 42 41 41 38 36 34 35 35 34 33 31 31 31 30 30 29 30 31 28 29 29 28 28 26 28
46 46 45 44 44 44 43 42 42 42 42 41 41 41 41 41 41 40 41 40 38 36 33 31 32 34 32 30 30 30 30 30 28 27 29 28 28 27 27 27 26 26 26
44 46 45 43 43 43 43 41 41 41 39 39 39 39 40 40 41 40 39 38 37 35 34 34 33 34 33 33 29 29 29 29 28 29 28 26 26 25 26 25 24 24 25
44 44 43 42 41 41 40 40 39 39 37 37 38 39 38 37 40 40 39 38 36 35 35 35 34 34 33 32 33 31 32 28 29 27 28 24 24 23 23 25 26 24 23
39 42 41 40 40 40 39 39 38 37 37 37 38 37 36 36 36 37 39 37 38 37 36 35 34 32 31 32 31 30 31 30 28 24 26 25 24 24 25 25 24 23 23
41 41 40 39 39 38 37 37 37 36 35 35 37 36 36 35 36 36 37 34 34 33 33 33 32 33 31 29 30 31 31 30 27 26 24 22 21 21 22 22 22 23 21

GFSMW_sfc_temp_018.txt.gz
Temp
74 74 74 75 76 76 75 73 70 70 71 74 73 73 72 74 74 74 71 71 71 70 69 71 70 69 68 66 66 66 65 65 66 62 64 66 67 66 67 68 67 66 65
73 71 73 74 74 74 74 73 73 73 76 78 78 78 76 75 73 72 69 70 69 70 70 68 69 67 67 66 64 62 62 64 63 57 57 56 61 66 66 64 64 63 64
71 71 71 73 73 71 73 75 75 76 76 75 76 74 73 72 73 72 73 70 69 69 68 67 66 66 65 64 62 61 58 58 61 59 55 51 51 55 60 61 62 60 60
72 72 72 72 73 73 75 76 75 74 73 73 74 71 73 71 69 70 70 71 67 67 67 66 65 63 64 62 62 62 58 57 55 58 60 56 54 48 47 57 58 58 58
71 71 72 73 74 72 72 72 72 72 72 72 71 71 68 69 69 70 66 67 67 67 66 65 64 63 63 61 59 58 57 57 55 55 55 53 54 53 49 45 50 55 57
71 72 72 72 71 71 70 70 71 70 71 70 69 67 66 66 66 65 65 66 67 67 67 66 63 62 61 59 58 57 56 55 55 55 54 52 49 49 48 46 47 48 52
70 70 69 70 69 68 68 69 69 67 68 67 67 66 65 65 64 64 64 62 63 63 63 62 61 61 60 58 57 54 55 54 53 53 52 53 52 52 50 48 46 46 50
70 70 70 69 68 67 68 68 68 67 67 66 66 66 64 63 65 63 62 61 61 61 61 60 60 60 58 55 53 55 56 54 53 52 52 52 53 53 51 48 45 41 44
69 69 68 68 67 67 66 67 67 67 65 62 60 62 61 62 61 60 61 60 60 60 59 59 58 57 55 55 53 55 54 54 53 52 52 52 52 52 52 50 48 41 35
70 68 67 66 67 67 66 66 66 64 60 58 60 64 62 62 61 60 59 58 58 58 58 57 57 55 55 55 53 55 52 53 53 53 51 51 52 51 51 49 48 45 40
69 67 66 66 66 66 65 65 64 59 55 62 62 61 61 61 60 59 58 58 57 57 56 56 56 55 53 52 53 52 50 51 51 51 49 49 50 49 49 48 47 45 44
69 67 65 65 64 64 64 63 61 57 63 62 61 60 61 61 59 58 57 57 56 56 55 54 54 54 53 53 50 50 52 51 50 49 49 48 49 47 47 47 44 44 43
67 65 64 63 63 63 62 61 57 59 61 62 61 61 60 59 57 57 57 56 55 55 54 54 53 53 50 49 50 51 50 50 49 48 47 46 46 44 45 44 43 41 40
64 64 63 63 63 61 60 57 55 61 62 62 61 60 58 58 57 56 56 55 54 53 53 53 53 51 51 51 51 50 49 48 48 46 46 45 43 42 41 40 40 39 36
62 62 62 63 62 60 58 53 63 62 61 60 60 59 58 57 57 55 55 54 53 53 53 52 52 50 49 48 46 48 47 46 46 45 45 44 40 35 35 36 35 35 34
61 62 62 63 62 61 54 62 61 60 60 59 58 58 57 56 55 54 53 52 52 52 52 51 50 48 49 36 37 38 46 45 44 42 43 42 39 38 34 33 33 33 32
62 62 62 62 62 60 61 60 60 59 57 57 57 56 55 53 53 53 53 52 51 51 50 50 49 47 47 36 35 34 44 43 42 41 40 40 40 37 37 35 33 33 33
62 63 64 62 62 63 62 61 60 58 56 55 54 54 53 52 53 53 51 51 51 49 49 49 48 47 44 35 34 33 43 42 41 40 39 39 39 37 34 33 33 36 38
65 65 65 62 57 58 58 57 56 56 54 53 52 53 51 51 51 50 50 50 49 49 49 48 46 45 44 34 33 34 40 39 38 39 39 37 36 33 31 31 32 34 36
65 63 61 59 58 57 55 55 55 53 51 50 50 51 51 50 49 49 49 49 49 48 48 46 45 38 42 33 33 34 39 35 36 38 38 34 32 29 30 30 30 28 32
62 61 58 58 55 54 54 52 52 51 51 50 50 50 50 49 48 48 49 48 48 46 44 41 42 42 40 39 32 32 35 35 34 35 36 36 30 29 29 28 30 28 30
58 58 55 52 50 50 51 52 51 50 49 49 48 48 48 47 48 47 47 47 46 44 41 36 38 42 40 34 32 31 31 32 31 32 35 33 29 28 28 29 26 26 27
56 53 48 46 48 51 51 49 49 48 47 46 46 46 46 46 46 46 46 45 46 43 41 40 39 40 40 39 31 31 30 30 31 33 31 28 28 28 30 28 26 27 30
50 51 42 43 48 48 47 48 48 47 45 44 44 45 44 42 41 42 43 44 43 42 41 39 40 41 39 38 38 37 36 31 31 33 33 30 26 28 29 31 31 31 29
43 41 42 47 47 46 47 48 46 44 43 44 44 43 43 41 40 40 39 41 45 42 40 40 40 36 34 36 36 35 36 35 33 29 31 32 31 31 31 31 31 31 29
38 40 44 45 46 43 43 43 43 42 40 40 42 43 42 41 40 39 40 36 35 34 34 34 34 36 34 32 32 32 31 32 30 30 30 30 29 28 29 29 29 30 28

GFSMW_sfc_temp_021.txt.gz
Temp
83 82 82 82 84 83 81 73 71 70 69 75 75 75 73 75 76 77 75 74 73 73 72 73 72 71 69 68 67 66 64 64 67 64 63 64 66 67 69 70 69 66 67
79 79 79 80 80 80 79 73 74 73 76 79 79 78 78 78 77 75 73 73 72 72 72 69 69 69 67 66 65 64 62 63 64 59 58 53 58 65 66 65 64 64 65
77 77 77 78 78 76 74 75 76 78 80 80 79 78 77 74 74 74 74 72 71 71 70 69 68 66 66 64 64 63 60 58 60 62 57 50 49 54 60 60 62 62 62
80 78 77 77 76 76 78 80 79 79 78 79 78 76 77 74 72 73 72 72 71 69 70 69 67 65 65 63 63 65 60 58 55 59 60 58 56 48 47 56 58 59 59
78 77 77 77 78 77 77 77 77 77 77 76 75 74 72 71 72 71 68 69 70 70 70 69 67 64 64 63 62 60 59 59 56 55 54 55 55 54 50 46 50 55 58
77 78 78 77 75 76 74 74 75 74 74 73 72 70 68 68 68 67 66 67 67 67 67 66 64 63 63 61 61 60 58 56 55 56 55 53 50 49 49 46 47 48 53
75 76 75 75 73 72 72 73 73 71 71 70 69 68 67 66 65 64 64 63 64 63 63 62 61 62 62 62 60 57 55 54 54 54 53 54 53 53 50 48 46 46 50
75 75 75 74 73 72 72 72 72 70 70 69 68 66 64 62 64 64 63 63 62 62 62 61 61 60 61 60 55 55 53 54 53 53 53 52 52 52 51 48 45 41 44
74 74 75 74 73 71 71 71 71 70 69 67 65 62 59 63 64 63 63 62 61 62 61 60 59 60 59 58 54 53 53 54 53 51 51 51 52 52 51 50 49 43 36
75 75 75 72 72 72 71 70 70 68 66 64 62 59 62 64 64 63 61 60 60 60 59 58 58 58 58 55 56 55 55 52 51 51 51 51 51 50 51 50 50 48 42
75 74 73 72 72 71 70 69 68 66 64 62 60 60 63 63 63 62 61 60 59 59 58 58 57 56 57 57 55 53 52 51 50 51 51 50 50 48 49 50 49 48 46
77 75 73 71 71 69 68 68 66 66 64 64 62 63 63 64 62 61 61 60 58 58 57 57 56 57 57 55 53 51 51 50 50 50 49 48 50 47 48 48 46 46 46
77 75 73 70 69 68 67 67 65 64 65 61 63 64 63 63 61 60 60 59 58 57 57 56 55 55 53 50 53 52 51 51 50 48 48 47 46 44 45 44 43 43 44
75 74 72 70 69 68 67 66 64 64 61 63 65 64 62 62 61 60 59 58 57 55 55 55 55 54 53 52 51 50 50 49 49 47 47 46 45 44 41 40 39 40 37
73 72 70 69 69 68 66 66 63 62 63 64 63 62 62 61 60 59 58 57 56 55 56 55 54 54 52 50 49 49 48 47 46 47 47 47 42 38 37 37 36 35 34
71 71 70 70 68 67 65 64 62 62 64 62 61 62 61 60 59 58 56 56 55 55 54 53 53 52 51 36 37 39 46 46 45 44 45 45 43 41 37 36 35 34 32
70 70 69 69 69 68 66 63 63 64 62 61 61 60 59 58 57 57 56 55 54 54 52 52 51 49 47 37 36 35 43 45 44 44 43 42 44 39 40 37 35 35 35
70 70 70 69 70 69 67 64 65 63 60 59 58 58 57 56 56 55 55 54 54 52 51 50 50 49 44 36 35 35 41 44 43 42 42 41 40 38 34 34 34 36 37
72 72 72 71 70 67 66 63 61 61 57 57 57 57 56 54 53 53 53 53 52 51 50 51 49 47 44 35 35 34 41 41 40 41 41 40 38 33 31 31 31 33 35
73 71 72 71 68 66 64 60 55 55 57 57 55 55 54 53 52 52 51 52 51 50 51 50 49 40 44 35 34 35 39 38 38 40 40 35 33 30 30 29 29 27 32
72 71 69 66 64 61 57 54 53 51 55 54 53 53 53 53 52 50 50 50 49 49 46 44 45 45 43 40 34 34 36 37 36 36 37 38 32 31 30 29 29 28 29
68 66 63 61 57 56 52 48 49 54 52 50 50 50 51 51 51 49 49 48 49 46 44 40 41 43 43 36 34 33 32 33 33 33 36 35 31 30 29 30 30 28 28
64 62 59 51 47 45 45 49 51 50 49 48 48 49 50 49 48 46 45 45 46 44 43 41 39 40 42 42 35 33 32 31 31 35 34 31 31 31 32 32 30 28 32
57 54 49 43 39 46 50 50 48 46 46 45 46 47 45 44 46 46 45 43 44 43 41 40 39 41 43 43 41 36 35 31 32 33 35 33 31 31 30 31 34 34 32
48 43 41 42 46 48 46 46 46 46 44 43 43 44 42 43 44 46 44 41 44 41 41 41 40 37 36 39 38 37 37 36 34 31 33 33 34 32 33 33 33 33 32
41 42 42 43 44 44 44 45 45 42 40 40 41 41 42 44 44 43 42 39 37 37 36 35 36 38 37 35 34 34 34 33 32 31 31 31 31 30 31 31 31 32 31

GFSMW_sfc_temp_024.txt.gz
Temp
80 80 80 81 80 78 74 72 67 65 68 65 65 68 66 68 68 69 68 68 67 67 64 62 62 61 59 58 58 56 54 53 54 52 52 53 54 53 55 55 55 56 61
79 78 78 78 78 77 72 69 68 67 69 69 70 71 69 69 68 66 66 66 66 65 65 62 60 59 57 56 55 54 51 52 52 47 48 44 47 51 53 52 53 51 55
76 76 76 76 75 71 70 71 70 70 71 72 74 71 69 66 65 65 63 64 65 65 64 62 59 57 56 54 53 53 52 48 49 50 46 41 39 45 49 49 50 49 49
78 77 76 74 68 69 69 72 72 73 74 73 71 67 66 64 64 63 63 64 65 64 64 62 59 58 56 54 53 56 50 49 45 48 53 47 45 39 39 45 47 47 50
78 76 75 72 71 72 72 73 74 73 72 71 69 67 64 63 63 62 61 62 61 61 61 59 56 54 54 54 53 52 50 49 46 45 44 44 44 44 39 37 39 44 46
77 77 77 75 74 73 71 70 70 71 70 68 66 63 60 60 59 58 56 58 58 57 57 58 54 54 53 52 52 51 51 49 46 46 45 44 41 40 38 36 38 39 42
74 74 73 72 71 69 68 68 69 68 67 64 63 61 60 58 56 55 56 56 55 54 54 54 53 52 52 53 52 49 48 46 44 45 44 45 44 44 42 39 38 36 41
73 73 72 71 69 68 68 69 68 67 66 64 62 60 59 57 56 58 57 55 54 53 54 53 53 52 53 52 51 48 47 46 45 45 44 44 44 45 43 39 35 34 37
72 72 72 70 69 68 67 66 67 67 65 62 60 57 57 56 56 58 57 54 54 56 53 52 51 51 51 51 49 47 46 46 44 43 45 42 45 45 42 42 40 35 30
72 72 72 69 69 69 67 66 67 65 63 61 58 58 57 58 58 57 55 54 53 53 52 52 51 51 50 49 49 47 47 45 43 45 44 42 44 43 41 40 39 40 35
72 72 72 71 70 69 67 66 66 63 61 60 58 56 57 58 58 56 55 54 53 53 52 52 51 50 50 49 48 46 46 45 43 43 42 43 44 39 39 39 40 38 37
73 73 72 71 69 67 67 65 63 63 62 60 58 57 58 58 56 56 56 54 53 53 52 52 51 51 50 48 46 45 46 44 43 43 42 42 46 40 39 38 36 35 36
74 74 72 69 68 67 65 64 63 62 61 61 60 59 58 57 57 56 55 55 53 52 51 51 49 49 49 48 47 46 44 43 43 42 41 41 40 36 35 34 33 33 37
74 74 71 69 68 67 65 64 62 62 61 61 60 57 57 56 56 55 54 53 53 51 50 50 49 49 49 49 48 47 43 42 43 42 41 41 39 34 32 33 30 32 29
74 74 72 69 68 66 65 65 63 61 60 58 58 56 58 58 56 55 54 53 51 51 50 49 48 48 48 46 43 43 41 40 40 40 42 40 39 38 35 34 29 28 27
73 74 73 71 68 67 66 64 62 60 60 57 56 59 58 57 55 54 52 51 50 50 49 48 47 46 47 38 38 38 37 39 39 36 37 38 40 37 37 37 36 33 26
71 71 70 70 68 68 65 62 62 60 58 57 58 58 57 55 53 53 53 51 49 49 48 47 47 45 38 37 37 36 37 36 36 35 35 37 41 34 32 34 34 33 35
70 70 70 69 69 68 66 63 63 60 57 56 56 55 55 54 52 50 50 49 48 47 46 44 45 45 40 37 36 35 33 35 36 35 35 33 33 28 30 28 27 29 30
69 70 71 69 68 67 65 62 60 58 56 53 52 53 53 51 50 49 47 47 46 45 44 46 45 43 36 36 36 35 32 33 34 36 35 35 32 31 32 27 26 26 28
71 70 70 69 67 64 63 57 55 52 50 49 50 50 51 49 47 47 46 46 45 46 45 44 42 40 34 35 35 34 29 30 30 32 33 33 31 32 31 24 24 22 25
70 70 66 61 56 56 55 49 47 45 46 47 49 49 48 48 48 46 45 44 44 43 39 38 38 38 36 33 35 35 30 28 29 29 28 29 32 31 31 30 25 24 27
66 62 54 50 49 49 47 44 43 47 47 48 47 46 46 47 48 44 43 42 42 38 38 35 35 35 36 36 35 35 33 33 26 28 28 28 33 32 31 30 30 31 27
54 54 47 44 44 44 45 43 45 48 46 44 42 43 45 46 45 42 40 39 38 37 35 33 33 32 33 33 35 34 34 33 25 27 30 32 32 32 30 33 32 26 23
51 47 44 42 42 45 46 46 45 45 43 41 42 44 42 42 42 42 41 39 34 33 34 34 32 32 32 33 30 30 29 30 29 29 29 27 27 25 26 24 28 26 24
44 44 42 41 40 43 44 46 45 43 42 42 41 40 37 38 40 41 40 35 37 36 36 35 34 33 30 32 34 33 32 32 30 25 23 23 25 25 24 24 25 25 26
41 41 41 42 43 43 44 45 45 43 40 38 38 36 35 36 39 39 38 40 37 37 37 36 34 33 36 36 36 35 35 34 31 23 20 19 21 23 23 20 21 22 22

GFSMW_sfc_temp_027.txt.gz
Temp
70 72 71 71 72 69 68 65 64 62 61 59 58 59 59 60 59 60 61 61 61 61 57 56 56 55 54 53 53 51 50 49 48 46 46 48 48 50 48 49 49 50 52
69 71 70 68 70 68 64 64 64 63 62 61 62 62 61 59 59 59 59 60 60 60 60 57 55 55 53 52 50 49 47 47 46 44 42 39 43 46 48 46 48 46 48
68 68 69 66 65 64 62 63 64 65 65 64 66 62 61 58 57 56 56 58 60 60 59 57 55 53 52 50 49 48 47 44 45 46 43 37 34 38 43 46 46 44 43
70 70 68 64 63 63 63 63 65 64 66 65 63 63 61 58 55 55 56 57 59 58 57 55 52 50 50 49 48 52 47 45 42 43 48 43 40 35 34 40 42 43 45
69 68 67 63 64 66 65 66 64 65 68 68 67 58 57 56 55 54 53 54 54 56 56 53 50 49 48 47 47 47 46 45 43 41 41 40 40 39 35 31 35 39 41
66 67 65 66 65 65 62 62 64 64 61 59 58 57 56 53 52 50 50 54 55 51 54 53 50 50 48 47 47 46 45 43 42 42 43 40 39 37 35 32 33 34 37
65 64 64 64 64 62 65 65 61 59 59 57 55 54 53 52 51 51 50 54 50 49 48 49 48 47 47 48 47 45 44 43 41 41 41 41 42 41 39 35 33 32 35
64 63 62 61 60 60 60 60 60 58 58 56 54 53 53 50 51 51 51 51 51 49 49 50 48 48 48 46 46 45 44 43 41 41 41 40 41 42 40 38 33 29 31
61 62 62 61 60 59 59 58 58 58 56 54 52 52 52 52 51 52 52 51 50 53 49 49 47 47 47 46 45 43 43 42 41 42 44 42 42 42 43 41 38 34 24
61 62 62 60 61 59 59 57 57 57 54 53 51 52 52 52 52 52 52 50 49 50 49 48 47 46 46 46 44 43 43 41 40 42 40 41 41 42 41 40 37 35 31
63 62 61 62 62 61 59 57 56 54 53 52 52 51 51 52 53 52 52 52 51 50 48 48 47 47 46 45 43 42 43 42 41 42 40 39 40 39 38 37 34 33 32
64 63 62 62 61 60 59 57 54 55 53 52 52 51 52 55 55 54 53 51 49 49 48 48 48 47 46 45 43 42 42 41 41 41 39 39 43 36 35 32 31 31 29
63 63 62 62 61 60 60 57 56 56 53 53 52 52 55 55 54 53 52 51 48 48 48 48 46 46 45 44 44 44 42 41 41 39 38 37 37 33 30 30 29 28 32
66 64 63 63 62 61 60 58 56 55 55 54 52 54 54 54 54 53 51 49 50 47 47 46 46 45 46 46 46 43 41 41 41 40 39 37 35 32 31 31 28 29 26
63 62 62 61 61 59 58 57 55 54 55 52 53 54 54 54 53 52 51 50 49 48 49 48 46 46 44 45 41 41 39 38 37 37 38 36 37 39 34 32 27 26 25
63 63 62 60 60 59 57 57 55 54 55 54 54 55 54 53 51 50 50 49 46 47 47 46 45 43 45 38 39 38 37 37 35 34 33 34 36 36 37 36 35 32 25
61 62 61 60 59 58 59 55 55 55 54 54 54 53 51 51 48 48 48 47 46 46 46 45 44 43 39 38 38 37 35 35 33 31 32 34 35 32 30 31 32 31 32
61 62 61 61 59 57 56 57 58 56 53 52 51 49 47 48 48 48 46 45 45 44 43 43 43 41 39 37 37 36 32 32 33 32 32 31 28 29 29 27 26 26 27
60 60 61 59 55 55 55 56 54 50 49 48 48 48 47 47 45 44 43 43 43 42 42 43 42 39 35 37 36 34 30 31 31 33 32 32 29 32 33 27 25 24 26
56 51 52 50 48 48 50 46 44 43 43 45 45 46 45 44 43 42 42 42 43 43 42 41 40 38 34 36 36 34 26 29 28 29 30 33 29 32 32 25 23 20 24
49 47 45 43 43 45 44 42 41 40 43 44 44 43 45 43 43 43 43 41 39 37 35 34 35 35 32 32 36 36 29 27 27 27 26 27 32 32 33 32 24 22 26
44 43 41 41 43 45 44 42 41 43 43 43 43 44 43 43 45 41 40 39 37 33 32 31 32 31 32 34 35 36 34 32 25 27 26 26 33 34 33 31 30 31 28
40 42 41 42 44 45 43 42 43 44 43 42 40 40 41 42 41 38 36 34 34 29 30 30 30 32 31 30 34 35 34 34 25 26 28 32 33 33 30 32 32 27 21
41 43 41 40 40 43 43 42 42 42 40 38 38 38 37 37 36 36 35 33 26 26 29 28 28 31 32 29 28 30 31 30 28 27 27 25 26 23 24 24 27 24 22
41 41 40 38 38 40 41 41 40 40 38 37 37 35 31 33 33 34 34 31 32 32 29 28 29 26 30 32 31 30 28 26 27 19 19 21 19 22 24 22 22 21 21
39 39 37 38 39 39 39 40 40 38 35 34 32 30 28 30 32 32 32 35 36 36 36 36 33 32 34 35 35 34 34 34 32 26 17 15 13 17 21 20 20 17 18

GFSMW_sfc_temp_030.txt.gz
Temp
69 70 69 68 67 67 64 63 61 60 60 58 57 57 57 57 57 58 59 59 58 57 55 53 53 53 52 51 51 49 48 47 45 45 44 45 45 45 45 45 46 47 48
65 67 67 67 67 65 65 62 62 61 62 60 58 59 58 57 56 56 56 57 57 56 56 53 53 53 52 50 49 47 45 45 44 42 40 38 41 43 46 44 45 42 44
66 66 65 65 65 64 62 62 61 62 62 62 60 58 57 55 54 53 54 55 57 57 56 54 52 50 50 49 48 47 46 43 43 43 42 36 34 36 40 43 41 41 41
68 66 66 64 63 61 62 62 63 63 62 61 60 59 59 58 53 53 53 54 56 54 54 52 49 49 47 46 45 49 44 42 41 41 46 41 40 34 32 38 39 40 43
67 65 63 63 64 62 61 61 62 62 62 61 59 58 56 54 53 52 52 52 51 52 52 51 48 47 46 45 45 44 43 42 40 40 40 39 38 37 34 30 34 38 39
63 63 62 63 61 62 61 61 60 60 61 61 59 58 54 52 51 49 49 49 49 50 50 50 47 47 46 45 45 43 43 42 41 41 44 43 41 36 34 31 31 32 36
60 59 60 60 60 60 60 61 61 57 56 56 54 54 52 53 52 49 49 49 50 50 49 48 49 46 46 45 45 43 42 41 40 40 40 40 40 39 38 35 32 31 33
62 61 60 60 60 60 59 59 59 54 54 55 53 53 53 52 50 50 52 51 50 49 49 49 47 46 46 44 43 42 42 41 39 40 39 39 40 40 40 38 35 30 31
57 58 58 57 55 56 56 58 58 57 54 52 54 53 52 52 51 52 51 50 49 51 49 47 45 48 47 44 43 41 41 40 40 40 39 40 40 40 40 40 38 34 26
57 58 58 58 58 57 56 54 57 56 54 52 52 53 53 52 51 51 51 51 51 51 50 49 48 46 45 44 43 41 41 40 39 40 39 39 38 40 40 38 38 35 32
59 59 60 60 60 60 57 56 56 53 52 52 50 51 52 51 52 52 51 51 51 51 49 47 48 46 45 44 41 41 41 41 40 39 38 39 38 36 35 34 34 33 33
61 61 60 59 58 58 56 57 55 54 54 53 50 50 50 52 53 52 52 49 50 49 47 46 46 46 46 44 42 40 42 42 40 40 39 39 42 36 35 33 31 30 29
59 60 59 59 59 59 58 57 55 54 53 52 51 49 51 52 52 52 49 48 46 46 45 45 45 45 45 45 44 42 41 39 40 40 37 37 37 34 32 31 29 28 32
61 60 59 59 60 60 59 55 53 53 53 52 51 50 53 53 50 50 47 46 46 47 45 45 45 45 44 45 45 42 40 39 39 39 38 37 35 33 31 30 28 28 25
58 57 57 58 57 56 54 53 53 53 53 52 51 52 53 52 50 46 46 46 46 46 46 44 45 44 44 43 42 41 38 36 36 36 37 35 36 39 33 30 27 26 25
58 59 59 57 56 56 54 53 53 52 52 53 52 53 52 50 48 47 46 45 46 47 46 44 43 41 43 40 40 38 35 37 35 33 32 33 36 36 36 35 34 31 24
56 57 56 56 55 55 54 53 52 52 52 51 52 51 49 47 46 47 46 45 44 44 44 42 42 42 40 38 39 38 35 34 32 31 31 33 35 33 31 32 31 30 31
56 55 54 55 54 53 53 51 52 50 51 49 48 48 46 45 45 44 43 42 42 42 41 41 41 40 40 38 38 37 32 32 32 31 31 30 29 29 29 27 26 27 27
47 46 46 47 48 50 51 48 47 46 45 45 45 44 43 43 42 41 40 41 41 40 40 41 40 39 36 37 37 35 30 31 31 33 32 31 29 31 34 28 26 25 25
45 44 44 43 43 43 44 42 40 41 40 42 43 43 42 41 40 40 40 41 41 40 38 37 37 37 34 36 37 35 27 29 28 29 30 34 30 32 32 25 24 20 24
43 44 43 42 42 43 44 40 41 40 42 43 43 42 41 41 42 41 40 38 36 35 32 32 32 32 33 32 37 36 29 29 28 28 27 27 33 33 33 33 24 22 26
41 42 41 41 43 44 43 41 41 43 43 42 41 41 42 42 41 37 36 36 33 31 31 27 30 29 32 34 35 36 34 32 27 28 28 27 33 33 33 31 31 31 27
39 42 42 42 42 41 40 39 41 42 41 39 38 38 38 38 37 34 33 32 31 26 29 28 26 28 30 32 34 35 35 34 28 29 29 31 32 33 31 32 32 27 21
40 42 41 39 39 41 41 39 39 39 38 36 36 36 34 34 33 33 32 31 26 26 29 28 28 27 28 29 28 31 32 32 30 28 30 27 26 22 23 22 27 24 22
40 40 39 38 38 38 38 39 38 38 36 35 34 33 29 31 31 32 31 31 31 30 28 28 28 25 26 29 33 30 29 30 29 26 21 20 20 22 23 22 23 22 20
39 39 38 38 36 37 37 38 38 36 34 33 32 29 28 28 30 30 31 34 34 35 35 35 32 31 33 35 35 35 33 33 31 25 24 24 21 20 22 20 20 17 17

GFSMW_sfc_temp_033.txt.gz
Temp
65 65 65 66 65 63 61 61 59 58 59 57 57 55 55 55 55 56 57 57 56 55 53 52 52 51 50 49 49 47 46 45 44 43 43 43 43 43 43 43 43 45 46
63 64 64 64 64 63 62 61 61 59 60 59 57 57 56 55 55 55 55 55 55 54 54 52 51 50 49 48 46 46 44 43 43 41 38 37 40 42 43 41 43 41 42
62 64 63 63 63 62 62 62 61 60 61 59 58 55 54 54 53 52 52 53 55 55 53 51 49 48 48 46 45 45 44 43 43 43 42 35 33 34 39 40 40 40 39
65 65 64 63 63 62 63 63 62 60 61 59 58 56 54 54 52 51 52 52 53 51 51 49 48 46 46 45 45 46 43 41 40 40 44 39 38 34 33 37 38 39 41
65 63 64 64 64 62 60 61 60 61 61 60 59 55 53 52 51 50 50 49 48 50 51 49 48 47 45 44 43 43 42 41 39 39 38 37 36 36 34 30 34 37 38
59 60 62 63 62 59 60 59 60 60 60 59 57 55 53 51 51 48 47 46 46 48 47 49 47 49 47 46 45 42 42 42 40 39 39 38 37 35 34 32 31 31 35
59 57 59 60 59 59 59 59 60 59 59 59 55 54 53 53 53 50 48 48 47 47 48 50 48 48 48 48 46 43 42 40 39 38 39 38 38 38 37 34 32 30 32
62 59 60 60 59 59 60 60 59 55 55 55 52 51 51 50 52 52 51 51 50 49 49 49 49 49 49 47 42 41 41 40 39 39 39 38 38 39 38 35 34 34 34
57 58 59 60 59 59 59 58 55 54 52 51 51 50 51 51 52 52 52 50 49 50 49 48 48 48 47 44 42 40 40 39 39 39 38 39 39 38 38 38 38 36 30
54 55 57 56 57 56 54 54 55 54 52 52 53 53 54 54 53 52 50 50 50 50 49 48 48 47 46 44 41 40 41 41 38 38 38 37 38 38 37 37 35 34 29
54 56 58 57 56 55 55 54 54 52 51 52 52 50 49 49 50 52 52 52 51 50 50 49 47 45 44 44 42 41 40 39 38 37 37 37 37 36 35 34 34 32 31
56 57 57 56 55 56 55 55 55 54 53 51 49 49 49 50 52 52 51 50 50 49 48 46 45 44 44 44 41 39 40 39 37 38 38 38 40 35 34 32 32 30 29
55 55 54 55 56 57 56 56 53 51 50 51 51 49 50 52 52 51 50 48 45 45 45 44 43 44 44 44 42 40 39 37 37 37 37 36 36 32 31 30 29 28 31
56 54 54 55 57 57 55 52 50 50 51 52 51 49 51 52 52 52 49 48 46 45 45 45 45 44 43 42 42 41 38 37 37 37 36 36 34 32 30 30 28 28 25
54 54 53 53 54 52 52 50 50 51 52 50 50 51 52 52 51 48 47 46 46 46 46 46 45 44 43 43 40 39 37 36 35 35 35 34 35 38 33 30 27 26 24
54 55 55 55 54 53 51 50 50 51 50 50 49 50 50 47 46 46 45 45 44 45 45 44 43 42 43 41 40 38 35 35 33 32 32 33 37 37 37 37 34 29 24
53 53 53 53 53 51 52 50 49 48 48 50 50 48 46 45 45 45 44 43 42 42 41 41 42 41 40 40 39 38 34 33 32 31 31 32 34 33 31 34 33 32 32
48 46 45 48 48 48 47 47 48 47 46 45 45 45 44 44 44 43 42 40 40 40 40 40 40 39 39 39 38 37 33 31 31 31 31 30 30 30 30 28 27 27 27
43 41 41 42 42 44 45 44 43 43 43 43 44 44 43 42 41 40 39 39 39 39 39 39 36 35 34 37 37 35 30 30 31 32 31 31 29 32 34 28 27 26 27
42 41 41 41 40 41 42 41 40 41 40 43 43 42 42 41 39 39 39 39 40 39 37 35 34 34 32 36 37 36 28 29 29 29 30 34 31 33 34 26 24 21 25
41 41 41 39 40 41 42 40 42 41 42 43 42 41 41 40 40 40 40 38 36 34 31 31 31 32 32 32 36 37 31 30 30 29 28 29 34 33 34 33 25 23 26
40 41 39 39 39 41 42 41 40 42 42 42 41 41 41 41 41 36 34 34 32 30 30 27 29 29 31 34 34 36 36 33 30 29 30 29 33 34 34 32 31 31 27
37 39 38 38 41 42 42 39 40 39 39 37 36 36 36 36 35 33 32 31 30 27 28 28 28 28 30 29 34 35 35 35 31 30 30 32 33 34 32 32 32 27 21
36 38 39 39 38 41 41 39 39 37 36 35 34 34 33 33 33 32 32 30 27 26 29 29 28 27 28 27 27 28 29 32 32 30 30 30 29 27 28 23 27 24 22
38 39 38 38 38 39 38 36 35 36 34 34 34 33 30 31 31 31 31 31 31 31 30 29 28 26 27 29 31 30 27 29 31 30 27 26 25 25 25 23 23 21 20
39 38 38 37 35 33 32 33 34 33 32 32 31 30 29 30 30 30 31 34 34 34 35 34 33 32 34 34 35 35 35 35 32 28 24 24 24 24 24 22 22 19 18

GFSMW_sfc_temp_036.txt.gz
Temp
62 62 61 61 60 60 60 60 58 57 58 56 56 55 55 55 55 55 56 56 55 55 53 51 50 50 49 48 48 46 46 44 43 43 43 42 43 44 43 44 44 46 46
59 61 60 60 61 61 60 59 59 57 59 59 56 56 55 54 54 54 54 54 54 53 53 50 49 48 47 46 46 45 43 43 42 41 39 37 41 42 43 42 44 42 43
59 61 61 61 62 61 60 61 59 58 59 58 56 53 53 52 52 51 51 52 53 53 51 49 48 46 46 44 44 44 44 42 41 41 41 37 35 36 40 41 41 42 41
61 61 61 60 61 61 61 61 59 58 59 58 58 55 55 52 51 50 50 50 51 50 49 48 46 45 44 44 44 45 43 43 40 42 43 40 39 36 34 39 39 40 41
61 61 61 63 62 60 58 60 60 59 61 60 59 56 54 53 51 50 48 47 47 48 48 47 45 44 44 45 47 47 45 41 40 39 39 38 37 37 35 32 35 39 40
59 61 62 61 60 57 58 59 59 60 60 59 57 56 53 50 50 47 46 45 45 45 46 46 45 45 45 47 46 42 42 41 40 40 39 40 38 37 34 31 32 32 36
60 57 57 58 57 57 58 58 59 60 59 58 56 55 53 53 54 50 47 46 45 44 46 48 46 47 48 47 46 43 44 41 39 39 39 39 39 38 37 34 32 33 37
59 59 59 60 59 58 58 59 59 60 59 58 57 55 56 54 53 50 47 47 47 47 50 48 48 46 48 47 46 43 41 40 39 38 38 38 38 38 37 36 33 33 37
57 60 58 59 59 58 59 59 60 61 58 58 55 53 53 52 51 49 49 48 49 49 46 47 47 48 47 46 45 43 41 40 39 38 38 37 38 38 38 37 37 37 31
52 54 56 57 58 58 59 58 60 58 55 53 52 52 51 52 51 50 48 48 47 49 48 48 48 47 47 46 44 42 41 39 38 38 37 37 37 37 36 36 36 37 34
52 53 55 57 58 58 57 56 54 52 49 50 49 48 48 50 50 50 49 50 49 50 49 48 47 46 46 44 41 41 40 39 38 38 37 37 37 36 35 34 34 32 31
53 53 54 53 53 54 53 53 51 50 49 49 48 48 49 49 49 50 51 49 50 49 49 47 46 46 45 43 41 40 41 39 37 37 36 37 39 35 34 32 32 32 31
52 52 52 52 53 52 52 52 51 50 48 49 50 49 48 49 49 50 51 49 48 46 45 46 46 45 44 43 43 40 40 38 37 37 36 36 35 33 32 31 31 30 32
53 52 51 51 52 52 52 50 49 48 48 49 48 47 48 51 50 48 47 46 47 46 44 46 45 44 44 44 43 41 39 37 37 36 36 35 34 33 32 31 30 30 28
51 51 51 51 52 51 50 50 48 47 48 48 47 47 49 47 46 46 46 45 45 45 46 45 44 43 43 43 41 40 38 36 35 35 35 34 35 38 34 32 29 28 26
51 52 52 51 51 51 50 49 48 48 48 46 46 47 46 45 45 45 44 44 44 43 43 42 41 40 43 41 40 38 35 34 34 33 33 33 37 37 38 37 35 30 26
46 46 46 47 48 49 49 46 46 46 45 46 46 44 44 44 43 43 44 43 41 41 40 39 40 40 41 40 40 39 34 33 33 32 32 32 34 34 33 35 35 33 33
42 41 40 42 42 43 44 44 45 43 43 42 42 44 44 43 43 42 41 40 40 39 39 39 40 39 39 38 38 37 34 32 32 32 32 31 32 31 31 30 28 29 29
39 38 39 39 39 40 42 42 41 42 42 41 42 43 43 42 41 40 39 39 39 39 39 39 38 35 34 37 37 36 31 31 31 33 33 32 31 33 35 29 27 28 28
39 38 38 39 39 39 41 40 39 39 39 40 42 42 42 41 40 39 39 39 39 39 38 36 34 35 32 35 37 36 28 29 32 32 33 35 32 34 34 29 26 23 27
38 39 38 37 37 39 41 39 39 38 39 41 41 41 41 41 41 40 39 37 35 34 32 32 32 31 32 32 36 37 30 30 31 32 32 32 34 35 35 34 26 25 28
37 38 37 37 38 38 39 37 37 39 40 41 41 41 39 38 38 35 33 33 32 30 30 28 30 30 31 34 34 36 35 33 29 30 30 31 34 33 34 33 32 31 27
35 37 37 36 37 38 38 36 37 39 37 35 34 34 34 34 33 32 31 31 30 26 28 29 29 30 30 29 34 35 35 34 31 30 31 33 33 32 32 33 32 30 27
35 36 37 36 35 38 38 37 37 35 34 33 32 32 32 32 31 31 31 29 27 27 29 29 29 30 30 28 29 29 28 29 30 30 32 32 31 30 30 29 31 30 27
36 38 38 36 35 35 34 34 32 32 31 32 31 31 29 29 30 30 30 30 30 31 30 30 30 30 30 33 33 32 28 26 28 26 32 30 27 27 27 27 27 27 25
37 37 35 34 32 32 30 30 31 31 30 30 30 28 27 26 28 28 29 34 34 35 35 35 33 34 35 35 35 35 34 34 32 29 28 26 27 26 26 26 26 26 25

GFSMW_sfc_temp_039.txt.gz
Temp
68 68 68 68 69 68 68 68 67 67 67 64 64 65 65 65 64 65 66 66 66 65 64 64 62 63 63 61 61 60 60 60 60 59 59 58 57 57 60 61 62 60 61
65 67 67 67 67 68 68 68 68 67 68 68 68 68 67 65 66 64 65 66 64 65 64 62 62 62 60 59 59 60 59 60 58 57 56 55 55 57 57 59 58 57 60
65 65 66 66 67 67 67 67 68 67 68 68 67 64 64 63 61 61 64 64 64 64 63 61 61 60 61 60 59 59 57 56 55 55 57 53 53 53 56 55 58 56 57
67 68 67 66 66 67 68 68 68 67 67 66 67 65 66 64 63 63 64 63 62 61 62 60 59 59 59 58 57 58 57 56 55 54 56 55 55 52 50 56 56 56 55
67 68 69 70 69 68 66 67 68 68 67 66 67 64 64 63 60 60 59 59 59 60 59 59 58 57 58 57 56 54 52 51 49 56 54 53 54 53 49 47 51 54 55
67 69 71 71 71 68 67 66 67 66 66 63 64 63 63 60 58 58 57 57 58 57 57 58 58 57 57 56 51 48 47 47 55 55 54 54 52 51 50 47 48 48 50
70 68 68 68 69 66 66 66 66 62 62 62 62 61 60 60 60 58 55 52 53 55 54 56 55 55 56 52 47 47 50 54 54 53 54 54 53 53 51 48 47 46 50
69 69 69 70 68 67 66 66 66 64 60 61 61 62 62 60 61 58 54 53 56 54 55 55 56 55 54 53 48 49 52 53 53 52 52 53 53 53 51 49 46 43 47
65 68 69 68 68 66 65 65 66 66 61 61 62 61 61 60 59 56 54 55 54 55 54 55 55 54 49 51 51 52 53 52 52 52 51 51 53 52 51 50 48 44 36
63 64 66 66 67 67 67 65 66 67 66 64 62 60 61 62 59 54 54 55 54 54 54 54 53 52 54 47 53 53 53 51 52 52 51 50 51 51 50 50 49 46 40
65 64 65 65 66 66 66 65 66 67 66 64 62 61 59 59 56 54 55 53 53 55 55 53 50 49 54 54 53 51 51 50 51 50 49 49 50 49 49 48 48 46 43
66 65 64 64 64 64 64 64 64 63 63 61 58 58 58 55 54 53 53 53 54 55 55 52 49 49 53 53 51 50 48 49 49 49 49 48 49 48 48 48 46 46 46
64 63 62 62 62 62 60 61 61 61 59 58 58 57 55 55 55 54 55 55 55 55 50 49 48 52 53 52 49 45 49 49 49 49 48 48 48 47 48 47 46 46 44
62 62 60 61 61 60 61 61 58 57 56 57 57 56 55 55 55 54 53 51 51 49 51 49 48 50 49 49 46 47 48 48 48 48 47 48 47 47 47 46 45 44 42
59 59 60 60 60 60 59 58 57 56 57 56 56 54 55 55 54 52 48 47 47 48 48 48 47 45 45 44 44 47 48 47 47 47 47 47 46 43 44 45 45 43 41
54 55 57 58 58 58 59 56 55 55 56 55 54 54 51 50 48 46 45 44 45 46 46 43 43 42 44 40 40 42 46 47 45 46 47 47 41 41 39 38 38 41 41
50 50 50 51 52 54 55 54 54 54 53 53 52 51 48 46 45 45 45 42 43 44 42 42 43 43 43 40 40 39 45 46 46 46 46 46 44 40 44 39 37 35 34
47 46 48 48 49 51 51 51 51 50 50 49 49 49 48 45 45 44 44 42 42 42 43 45 43 42 42 39 38 37 45 45 45 45 46 45 45 44 42 41 41 41 40
45 45 46 46 48 48 49 49 49 49 48 47 47 47 46 46 46 42 42 45 44 45 42 41 40 43 44 38 37 38 43 43 43 44 44 44 43 40 37 38 38 39 39
45 45 45 46 46 46 48 47 46 46 45 46 47 48 49 48 46 45 43 42 41 41 44 44 44 41 43 39 37 39 42 40 40 42 42 37 40 37 35 37 36 34 38
44 45 46 44 45 47 47 45 45 43 46 46 46 45 44 42 42 43 45 45 44 43 42 41 42 42 42 42 37 37 40 40 39 40 40 41 36 35 35 35 36 34 38
43 45 44 43 45 46 45 42 41 44 45 43 42 43 44 43 43 43 43 43 42 41 40 37 40 42 41 38 38 36 36 39 37 38 40 40 36 35 35 35 33 32 32
43 44 43 42 43 44 45 42 42 44 43 42 41 41 41 41 41 41 41 41 41 39 38 38 38 39 41 41 37 35 35 35 36 39 38 35 35 34 34 33 33 32 31
42 43 42 40 39 41 40 41 41 41 41 40 39 39 39 39 40 41 40 40 38 37 37 36 35 36 36 38 40 39 40 36 34 35 37 35 33 33 34 32 33 33 33
41 42 40 38 37 37 36 36 38 40 39 38 37 37 36 36 37 38 37 36 38 36 34 35 34 32 32 34 35 35 35 35 35 33 33 33 32 32 31 33 33 32 33
40 39 37 35 34 33 32 35 37 37 36 35 34 32 33 33 34 34 34 33 32 32 32 32 32 33 32 30 31 32 33 34 34 32 32 32 32 32 32 31 32 32 31

GFSMW_sfc_temp_042.txt.gz
Temp
75 74 75 77 77 76 75 75 73 74 75 72 73 75 74 77 75 75 75 73 76 74 74 74 72 72 72 71 69 69 67 69 70 68 67 66 65 64 67 67 68 66 66
75 75 75 76 75 76 75 75 75 75 75 77 77 77 77 77 77 76 74 74 74 74 73 72 71 71 70 68 67 67 67 70 69 64 64 62 63 63 64 66 65 63 66
75 75 74 76 76 75 75 76 77 77 77 77 78 78 78 76 74 71 70 72 72 73 73 71 71 70 70 68 67 67 66 65 65 63 61 59 59 63 65 61 63 62 63
78 79 77 77 76 77 78 77 78 78 78 78 77 74 74 73 74 72 72 73 71 72 72 71 70 68 70 67 67 67 66 61 57 54 60 61 62 59 58 62 61 63 61
79 79 79 80 80 78 77 77 77 77 77 76 76 74 73 77 77 73 71 70 69 69 70 69 68 67 68 66 65 63 61 56 53 59 61 61 61 60 56 55 60 63 63
80 81 83 82 81 80 78 76 76 76 76 74 72 72 72 73 68 69 68 68 67 67 65 66 66 67 67 64 64 63 57 53 57 62 63 61 59 59 57 55 56 56 59
80 81 81 82 82 80 77 76 76 75 71 68 65 66 68 70 66 67 67 65 64 61 61 63 63 65 63 63 62 55 56 54 59 60 61 61 60 60 58 55 54 54 58
81 82 82 82 82 81 79 75 73 71 71 68 62 66 67 64 64 68 67 65 60 60 59 60 62 62 62 59 55 52 51 58 57 59 59 61 60 60 58 56 53 49 52
80 81 82 83 82 81 79 76 75 73 73 69 64 65 66 65 65 67 68 63 59 58 58 59 59 59 57 54 51 53 54 58 59 58 58 58 59 59 59 57 55 50 44
77 77 79 80 80 81 79 77 77 77 76 71 67 65 67 66 66 65 64 60 60 60 59 60 59 57 55 53 48 49 58 58 59 57 57 57 58 58 57 56 56 55 50
78 76 77 78 78 78 78 76 76 77 77 74 72 66 67 67 65 64 64 62 61 57 56 57 58 54 52 52 52 55 56 55 51 56 55 54 56 56 56 55 55 54 53
78 79 77 76 76 75 76 75 76 76 77 76 74 70 66 64 61 60 60 59 57 55 57 60 56 54 57 55 52 52 54 50 52 55 56 54 56 54 54 54 53 53 53
77 77 75 75 75 74 73 73 73 73 74 73 71 68 64 59 57 56 55 54 54 55 57 56 53 54 54 52 51 49 47 48 53 54 55 55 55 53 54 54 52 53 53
75 76 74 74 74 72 72 72 70 69 67 68 67 65 64 63 63 60 58 56 55 56 50 50 51 50 51 51 49 47 46 47 50 52 53 54 54 53 53 53 52 52 50
70 70 73 73 73 71 69 69 67 67 67 66 66 63 63 63 62 60 60 59 59 55 50 50 46 49 49 47 49 49 44 46 51 53 54 54 52 48 49 53 52 51 49
66 67 69 69 68 68 68 65 65 64 66 64 63 62 61 59 57 55 54 49 48 48 46 47 45 46 51 41 40 40 42 47 50 51 53 54 48 46 41 40 40 44 47
63 63 63 64 65 65 66 64 63 63 63 61 60 59 57 54 52 50 49 45 49 44 45 46 52 48 48 40 40 39 46 50 51 52 52 52 54 47 50 40 37 37 37
60 60 61 61 63 63 62 62 62 61 59 58 57 56 55 52 52 51 50 47 47 46 48 49 47 50 49 39 39 38 47 49 51 51 51 50 51 52 50 48 48 47 47
59 59 60 60 61 61 61 60 60 59 57 56 55 55 55 54 53 52 51 52 52 50 50 46 43 41 43 40 39 39 48 48 49 50 51 50 50 46 41 45 45 45 45
58 57 58 59 59 59 60 58 57 56 54 55 55 55 55 54 52 51 47 43 43 44 46 49 51 47 49 43 39 40 46 45 46 48 49 41 44 41 37 43 43 41 43
56 57 58 57 57 58 58 55 55 52 54 53 51 49 47 45 47 51 52 53 52 51 49 47 49 49 48 48 40 39 43 44 44 45 46 48 39 37 36 37 41 40 43
54 56 54 54 55 56 55 51 47 49 50 48 47 51 51 50 51 50 51 50 50 47 46 45 46 48 48 42 41 38 37 38 39 40 44 45 39 38 36 36 37 36 35
55 55 54 52 53 55 54 50 49 50 50 50 49 49 49 49 49 49 48 49 48 46 44 43 42 43 43 43 38 37 37 37 38 41 39 35 34 34 35 34 34 33 36
54 54 51 49 48 51 51 50 50 51 49 48 47 47 45 46 47 49 47 46 43 41 40 40 39 40 40 41 36 35 37 36 37 36 39 36 34 34 34 34 34 34 36
52 52 49 47 46 47 46 48 48 49 47 45 45 44 43 44 45 45 43 40 41 35 35 36 36 33 32 31 30 31 32 32 33 32 34 35 36 36 35 35 34 36 36
50 49 47 45 44 43 43 43 45 46 45 42 42 38 40 41 43 42 42 32 32 31 31 30 30 32 30 28 28 30 30 30 31 33 33 33 34 35 37 34 33 35 34

GFSMW_sfc_temp_045.txt.gz
Temp
71 73 72 74 73 74 74 75 73 73 72 72 75 76 74 77 79 81 80 79 78 76 75 78 75 74 75 73 72 71 69 70 71 69 70 71 68 67 68 69 69 69 68
74 73 75 78 77 77 77 76 75 75 74 74 77 79 78 79 80 80 77 75 77 77 76 76 75 73 74 72 70 69 69 70 69 66 66 62 63 66 66 68 67 65 67
76 75 76 78 78 78 77 78 78 78 78 79 80 80 80 80 78 79 78 74 76 78 76 76 75 73 74 70 68 69 68 67 67 66 60 53 57 63 68 64 65 65 64
80 79 78 77 78 79 80 80 80 80 76 80 78 77 77 76 78 76 74 74 74 75 76 75 73 72 72 70 69 70 69 67 64 62 63 61 62 58 58 65 63 64 62
82 80 79 80 81 80 80 79 80 81 81 80 79 78 76 78 80 79 74 73 75 74 74 73 71 69 70 70 69 68 66 66 60 62 60 62 63 62 57 55 61 64 65
83 83 84 83 82 82 80 80 79 80 81 81 79 77 75 76 75 72 72 74 73 72 71 72 69 68 67 68 67 66 61 59 59 55 61 62 60 60 59 57 58 58 62
83 83 83 84 83 82 80 80 79 79 80 78 73 74 73 72 65 67 68 69 69 68 68 69 65 64 62 65 65 58 57 54 52 55 61 64 62 62 60 58 56 55 59
84 84 86 85 85 84 82 80 80 79 80 75 70 69 71 68 67 64 63 63 63 63 66 63 60 60 61 59 56 57 55 51 53 54 60 61 61 61 60 57 54 50 53
85 86 87 87 87 86 84 81 79 80 80 74 65 65 70 69 68 66 66 63 62 65 62 58 57 58 57 58 58 55 52 56 55 53 56 56 57 58 60 59 56 51 44
83 85 87 87 88 88 86 83 81 80 77 70 71 71 70 69 69 67 65 63 65 63 59 58 58 59 60 58 55 55 56 53 54 53 52 55 58 59 59 58 57 55 51
82 82 84 86 87 88 86 84 82 82 77 75 73 73 72 70 67 65 64 64 62 60 60 60 58 56 56 54 53 52 53 54 51 50 49 53 56 56 57 57 56 54 53
83 84 83 82 82 82 83 82 81 81 82 73 72 72 71 71 64 63 62 62 61 62 62 58 55 55 55 52 50 52 53 53 48 47 49 51 56 55 54 54 54 54 54
82 83 82 80 80 80 80 80 79 80 81 81 74 69 65 62 61 60 59 58 58 58 56 55 56 53 52 52 50 50 47 46 48 48 49 51 53 53 54 53 53 55 55
81 82 81 80 80 78 78 77 77 78 78 77 76 71 64 62 61 59 57 55 54 54 55 54 50 52 50 50 49 46 46 49 50 47 50 52 52 52 52 54 54 54 52
78 80 80 80 78 76 76 75 73 72 73 72 72 66 66 66 64 62 60 58 57 55 52 51 52 49 47 47 46 49 52 49 47 46 49 53 52 48 48 52 53 53 52
75 76 78 77 75 73 73 71 70 69 70 69 66 66 65 64 62 61 59 58 57 55 52 47 47 46 50 44 42 44 49 46 45 44 50 54 51 50 43 43 42 43 47
72 73 73 73 73 71 70 68 68 68 67 65 64 62 61 59 57 57 56 54 53 53 49 49 50 50 53 41 40 39 44 43 44 49 51 53 56 50 54 46 40 40 38
69 69 69 69 70 71 69 68 68 66 64 63 61 60 58 56 57 56 55 54 53 52 51 52 53 52 48 40 40 38 44 48 50 51 52 52 52 52 50 51 50 49 49
69 69 70 69 68 68 68 67 65 64 62 60 59 59 59 57 57 55 53 53 52 52 50 47 48 47 50 41 39 40 48 48 48 51 51 51 51 46 43 46 45 47 47
67 66 67 67 66 66 67 64 62 61 59 59 59 59 59 57 54 52 51 50 50 51 52 52 53 48 52 42 39 42 46 44 45 47 49 44 45 42 40 44 43 41 44
65 65 66 64 64 65 64 62 60 58 59 59 57 55 55 53 53 54 55 55 54 54 51 49 51 51 49 49 39 38 42 40 38 39 41 44 40 38 38 37 41 41 43
63 65 62 62 63 64 62 59 57 57 56 54 53 54 55 55 55 54 53 53 53 50 48 47 47 49 49 40 39 37 35 35 37 36 40 41 38 37 37 36 35 35 35
64 64 62 60 60 61 59 55 54 55 55 55 53 53 53 54 54 53 51 52 51 47 45 44 43 44 45 45 36 36 35 35 35 37 36 34 35 36 35 35 34 33 35
63 63 59 57 56 58 58 56 56 56 54 52 52 52 51 50 51 52 51 49 45 43 41 40 40 40 40 40 36 34 35 34 35 34 35 33 32 32 34 35 37 35 35
62 59 57 55 55 56 55 55 55 55 53 51 50 48 47 49 48 48 45 42 38 35 36 37 36 33 32 32 29 29 30 31 31 29 32 35 37 37 38 39 39 39 36
58 56 55 53 52 52 51 52 54 53 50 46 46 44 44 44 47 46 41 32 33 32 31 30 30 32 30 28 27 28 29 29 29 31 32 31 31 31 32 33 33 36 34

GFSMW_sfc_temp_048.txt.gz
Temp
68 68 69 67 66 64 65 65 64 64 64 64 65 66 67 69 70 71 72 72 72 71 68 67 67 65 65 65 64 62 61 59 60 57 57 58 58 58 57 58 57 59 59
67 68 67 69 67 66 66 66 67 66 66 66 68 70 70 70 72 72 73 72 70 71 69 67 67 65 65 64 62 61 58 58 58 54 54 51 53 54 57 56 57 56 57
66 67 68 68 69 67 67 68 69 69 70 69 71 72 72 70 69 70 69 70 70 70 70 68 66 65 65 62 61 60 59 56 56 57 52 48 47 50 54 54 54 54 53
70 69 69 69 69 71 71 72 72 72 72 72 70 70 70 69 69 68 70 70 69 68 70 70 67 65 63 62 60 62 59 57 53 53 57 56 54 46 45 51 52 54 55
75 71 72 74 74 74 73 73 74 74 74 74 72 70 69 69 70 70 68 68 67 68 68 68 66 63 63 62 61 60 59 56 54 55 53 54 54 51 47 43 48 51 52
77 77 76 76 76 77 75 74 74 75 75 73 72 68 67 69 67 66 65 65 66 66 65 67 64 63 62 61 61 60 58 53 54 53 53 52 52 52 50 47 47 47 51
78 78 77 76 76 75 74 74 74 74 75 72 72 70 68 68 67 66 63 61 60 60 62 64 62 60 61 59 59 56 54 52 50 50 52 54 54 54 53 50 46 45 49
79 79 79 77 77 75 75 74 74 73 75 73 70 70 70 67 66 66 62 61 61 61 61 60 60 57 58 56 54 52 51 49 48 49 52 52 49 52 53 49 46 41 44
80 80 81 79 78 77 75 74 75 75 75 73 70 67 66 66 65 63 63 61 61 61 60 59 56 56 55 54 52 50 48 48 49 51 50 49 51 51 52 51 49 44 36
81 81 82 81 81 80 78 75 75 75 76 75 69 69 66 65 66 65 63 63 61 60 58 56 56 55 54 54 50 48 48 50 50 50 49 49 50 50 51 49 49 46 41
78 79 80 82 82 82 80 77 77 77 75 74 69 67 67 67 66 63 63 63 60 58 56 56 55 55 54 52 49 49 50 50 47 47 46 46 48 49 48 47 46 45 45
81 79 79 80 79 79 81 78 77 77 71 70 69 68 68 67 62 61 60 59 57 57 57 56 55 54 52 51 49 48 50 48 45 45 45 47 51 46 48 46 45 45 44
80 80 79 78 78 77 77 78 77 76 70 74 69 68 65 62 60 58 57 57 56 56 55 54 53 52 50 49 48 48 47 45 45 45 46 46 47 47 47 48 45 45 49
79 79 78 77 77 76 76 75 74 75 73 70 67 61 59 58 57 55 53 52 52 51 51 51 50 49 48 47 48 46 45 45 45 47 46 46 46 47 47 47 44 46 44
78 78 78 77 76 74 74 74 70 69 69 68 64 59 59 59 57 56 55 53 53 52 50 48 48 47 47 47 46 47 45 45 45 45 47 46 46 46 45 47 43 41 41
77 77 78 78 74 74 72 70 68 67 68 64 63 62 61 60 58 56 55 54 52 50 49 48 45 43 48 42 43 44 46 46 44 42 45 45 45 46 42 42 43 44 42
75 74 75 74 72 71 69 67 66 67 65 63 63 61 59 56 54 54 53 51 48 48 45 45 45 46 47 42 41 40 43 43 43 42 42 45 51 45 46 44 41 39 39
72 72 72 70 68 68 67 66 66 63 62 60 59 58 56 54 54 53 51 48 48 46 46 46 48 48 45 40 40 39 41 41 41 42 43 42 43 43 42 40 38 40 41
70 69 70 69 68 66 66 65 63 62 60 58 57 57 56 54 53 51 49 50 50 49 47 46 45 44 45 40 39 39 40 41 40 44 42 42 41 41 40 38 36 38 40
69 68 68 67 65 65 65 62 60 59 57 57 57 58 57 54 52 50 49 47 47 47 48 48 47 44 44 39 38 39 36 34 32 35 39 38 39 38 38 34 33 32 33
67 67 66 64 64 65 63 60 59 57 58 58 57 55 54 51 51 50 49 49 48 47 43 43 43 45 40 37 36 36 32 29 30 30 31 32 36 36 35 35 32 32 35
65 65 63 62 63 64 61 59 56 57 56 54 51 51 52 54 53 49 48 48 46 42 39 38 37 37 36 35 35 34 34 33 29 29 30 31 34 34 34 33 34 35 34
63 64 62 60 61 62 61 56 54 54 52 52 52 51 52 52 51 48 45 45 43 38 34 33 33 33 33 32 33 33 32 32 28 30 31 32 32 32 32 34 34 32 31
63 63 60 58 57 59 58 55 54 54 53 50 49 49 47 47 47 48 46 41 35 33 32 32 31 30 31 27 27 27 27 29 29 28 27 27 29 30 32 32 34 32 32
63 61 57 56 55 56 54 55 54 54 51 49 48 45 43 44 43 38 38 33 32 31 30 29 29 26 24 25 27 26 26 25 27 24 25 27 27 27 27 28 29 30 29
60 58 56 55 54 54 52 53 53 52 48 45 42 38 38 39 42 38 34 34 32 32 31 30 28 27 28 27 27 28 29 29 29 24 23 21 21 22 24 24 25 25 26

GFSMW_sfc_temp_051.txt.gz
Temp
60 58 58 57 56 56 56 57 57 59 60 59 61 61 62 63 62 63 66 66 67 66 65 62 63 61 61 61 60 59 58 56 55 54 52 53 53 55 54 54 54 56 56
60 60 58 58 58 58 58 58 59 60 60 60 65 64 64 63 66 66 65 67 67 67 64 62 61 60 60 60 59 58 55 55 54 52 49 48 50 51 53 52 53 52 54
59 60 58 59 59 58 59 60 61 62 63 62 63 65 65 63 61 61 65 67 68 66 65 63 62 60 59 58 57 56 56 53 53 53 51 45 44 46 49 51 51 51 50
62 63 61 60 60 60 62 63 63 63 65 65 63 63 63 63 65 62 63 64 66 65 66 65 63 60 60 58 57 58 57 57 54 52 54 50 51 46 44 51 52 50 51
62 63 63 63 63 63 63 64 65 65 66 65 65 63 62 66 64 65 61 64 62 63 63 62 61 61 62 60 58 58 58 56 54 52 52 50 52 52 48 42 49 49 49
63 65 66 67 66 66 64 64 65 65 66 66 66 66 64 63 63 61 63 62 61 61 63 63 61 61 59 59 58 57 57 53 53 53 52 51 50 50 48 45 43 47 47
65 64 65 65 67 67 66 66 67 66 67 67 67 66 63 64 65 60 62 59 60 58 59 60 59 59 58 58 57 55 53 52 51 49 48 50 50 52 50 45 42 45 44
69 66 67 68 69 69 69 68 68 68 69 68 67 68 67 64 63 62 59 61 61 60 60 59 59 58 57 56 54 52 51 50 49 47 48 49 50 50 51 48 46 38 39
71 69 70 70 71 71 71 69 70 70 70 69 67 67 66 66 64 60 60 60 58 57 57 58 56 57 55 54 52 51 49 49 47 46 47 48 49 49 49 49 46 41 34
70 72 72 71 72 73 73 71 71 71 72 68 67 68 68 61 61 60 58 59 58 57 56 56 55 55 54 52 51 49 48 48 47 48 47 47 47 48 48 47 47 43 38
68 66 70 72 74 74 72 70 69 67 69 69 69 67 64 60 61 60 60 59 58 56 55 54 54 53 52 51 49 49 48 48 46 46 46 46 47 46 46 44 43 41 40
69 69 69 68 68 72 67 67 67 65 67 67 66 65 62 61 60 59 59 59 57 55 54 54 54 53 52 50 49 47 49 47 45 45 46 47 49 45 43 42 42 40 43
68 67 68 69 68 67 69 67 65 65 67 68 66 62 61 62 60 58 57 56 54 55 54 54 53 51 50 49 49 48 46 45 45 46 45 46 45 43 45 45 45 45 47
70 66 65 67 68 67 66 67 67 67 67 67 62 58 58 56 56 55 54 53 54 53 52 52 51 50 49 48 47 46 45 45 45 45 45 45 44 44 44 42 41 41 37
68 67 65 65 65 65 63 63 62 63 63 61 58 56 55 55 55 53 52 52 51 51 50 49 47 47 47 47 45 46 45 44 44 45 45 44 45 44 42 43 41 37 37
69 70 69 66 66 65 62 62 60 59 60 57 56 57 57 56 54 53 51 51 49 48 47 46 45 45 47 41 42 44 43 45 44 41 44 44 43 42 41 41 40 39 36
67 67 67 66 64 63 62 59 59 59 58 57 58 57 55 53 53 53 51 48 44 42 41 41 42 42 43 41 41 40 42 42 42 41 41 40 45 41 39 38 38 37 38
65 64 63 60 61 61 61 59 59 57 56 54 54 54 52 50 50 49 47 43 42 41 41 41 42 42 43 40 40 39 41 38 38 38 38 36 35 36 37 35 33 34 36
60 59 59 60 58 59 59 58 57 55 54 52 52 51 50 49 47 45 44 43 43 42 41 42 41 42 43 40 39 38 37 37 34 37 36 36 34 37 37 33 30 31 32
59 58 58 58 58 56 58 56 54 53 52 52 52 52 51 49 46 45 44 43 45 45 43 43 42 39 36 37 38 36 30 29 28 31 34 35 34 35 35 30 28 26 28
59 58 57 56 55 56 56 53 52 51 53 53 51 49 48 46 46 46 44 43 42 41 38 37 37 36 35 34 36 35 29 27 27 28 28 28 33 34 34 34 29 29 31
57 57 55 53 54 55 55 51 49 50 51 49 48 48 48 49 47 43 42 42 40 36 34 33 31 30 30 33 33 33 32 31 27 27 27 27 32 32 32 31 33 34 32
54 55 53 52 53 53 54 49 48 49 48 47 47 46 46 46 45 42 39 39 36 33 31 31 30 27 27 26 30 30 30 30 26 27 28 30 30 30 29 32 32 29 29
53 53 52 50 49 51 51 49 49 49 47 45 44 43 42 41 40 41 38 34 29 29 30 29 28 27 24 24 25 26 24 27 27 26 25 25 26 25 25 26 28 27 26
53 53 51 49 48 49 49 49 48 47 46 44 42 40 38 35 33 33 32 29 30 31 28 27 28 25 23 25 27 27 26 22 27 23 20 22 22 24 24 24 24 24 23
51 51 50 49 47 47 46 46 46 45 42 39 37 33 33 34 34 31 30 33 32 33 32 31 28 27 28 28 28 28 29 29 30 21 18 14 12 18 21 20 19 20 20

GFSMW_sfc_temp_054.txt.gz
Temp
54 54 57 57 58 58 58 58 58 58 59 59 60 60 59 60 60 61 63 63 63 65 63 62 60 60 59 59 59 58 57 55 54 53 51 51 51 51 51 52 52 53 53
53 54 54 55 56 56 57 58 58 59 60 60 61 61 61 58 60 61 62 62 63 63 63 61 60 60 59 59 57 57 54 54 52 53 51 52 50 50 51 50 51 50 52
53 54 54 53 56 55 54 56 57 58 59 59 60 58 58 58 58 59 60 62 62 63 63 62 60 59 58 58 56 55 55 55 54 54 54 47 46 45 48 49 49 50 49
58 56 55 54 54 55 57 58 58 59 59 59 60 60 61 61 63 60 62 62 62 63 64 63 60 59 59 58 57 56 54 56 54 52 55 53 52 48 48 51 49 50 52
58 57 57 57 57 58 57 58 59 60 61 61 61 60 58 61 62 60 58 61 60 63 64 63 60 59 59 60 58 56 55 55 53 53 50 51 51 51 48 44 47 51 50
59 60 60 60 59 58 58 58 58 60 61 61 61 60 58 59 60 58 57 58 61 60 62 63 61 59 59 59 59 57 56 54 53 53 51 50 49 48 46 44 45 46 48
60 60 59 59 60 58 58 60 60 59 61 61 61 62 60 60 60 60 59 58 60 58 60 62 60 60 59 59 58 56 55 53 51 51 50 50 49 50 49 47 46 45 47
62 61 61 61 61 61 61 60 61 61 62 62 62 62 63 63 63 63 60 59 61 61 59 59 58 58 58 56 55 53 52 51 50 50 49 49 49 49 49 48 45 42 42
63 62 63 63 63 63 62 61 62 63 63 63 62 62 63 63 63 63 60 60 60 58 58 58 57 56 56 54 53 51 50 51 49 48 48 48 48 47 49 48 47 42 37
65 64 64 64 65 66 64 63 64 63 65 65 64 64 64 64 65 60 60 59 58 56 56 56 56 54 53 52 52 50 50 49 47 47 47 47 47 47 47 47 46 45 42
67 66 66 66 67 68 66 65 64 65 66 66 66 65 64 64 60 60 60 59 59 57 56 56 54 52 50 49 51 50 49 48 46 46 46 46 47 46 46 45 44 43 41
68 69 68 68 68 68 67 67 66 66 67 67 68 65 64 61 60 59 59 60 58 57 56 54 53 52 50 49 49 48 49 47 45 45 46 46 47 46 45 44 41 39 39
62 64 64 67 68 68 68 67 67 67 67 67 65 63 61 61 60 60 60 58 56 55 54 53 52 51 50 49 49 48 47 46 46 46 45 46 45 44 43 41 40 41 44
65 63 62 62 65 67 68 67 66 67 68 66 62 62 60 60 62 61 58 57 56 54 53 53 52 50 49 48 48 47 46 46 46 46 45 45 45 42 41 40 37 39 36
63 62 63 61 61 60 64 67 65 64 64 63 62 58 60 60 59 60 56 54 54 53 51 49 48 48 47 47 46 46 45 45 44 44 45 45 44 43 42 40 37 35 33
64 64 64 63 62 61 62 62 62 62 63 61 60 58 56 55 55 53 52 51 50 50 48 47 46 45 46 41 42 44 44 44 44 42 43 43 43 42 39 39 38 36 31
63 63 65 63 62 60 60 57 58 58 59 58 57 56 55 53 52 52 50 48 47 47 44 44 45 45 45 40 41 40 43 42 41 40 42 41 41 37 35 35 35 34 36
63 62 60 59 59 58 57 56 56 56 56 56 55 54 53 52 51 50 47 45 46 44 43 43 44 43 42 40 40 38 38 37 37 36 35 34 33 34 33 31 29 30 31
59 58 57 56 56 56 56 55 54 53 52 51 52 52 51 49 49 47 46 43 41 40 40 40 39 39 39 39 38 38 37 34 33 35 34 33 31 35 36 30 28 28 29
57 55 54 54 54 53 55 53 51 51 49 50 49 49 49 48 45 44 42 40 41 41 41 40 40 39 39 37 37 35 31 29 28 30 31 33 32 33 34 29 26 26 27
56 54 56 55 53 54 54 51 50 49 50 50 49 47 46 44 44 43 43 43 42 41 36 34 34 33 34 35 36 35 29 28 28 28 28 29 32 32 33 33 28 29 29
54 54 52 51 51 53 53 49 47 49 49 48 46 45 45 46 45 43 40 40 38 35 32 29 27 29 30 33 34 33 31 31 29 28 28 28 31 31 31 30 31 31 27
52 53 51 49 49 50 51 47 45 47 47 46 45 44 44 44 42 40 37 37 36 33 30 29 26 25 26 27 31 31 30 29 26 28 28 29 30 30 29 30 30 26 23
52 50 51 49 46 48 49 47 47 48 46 44 42 42 40 37 37 37 36 34 30 31 31 29 26 25 24 24 25 26 26 27 27 27 26 25 26 25 26 26 26 25 23
51 53 51 48 45 47 46 47 47 47 44 42 40 35 34 34 32 30 30 30 30 31 30 29 29 24 23 26 28 27 26 25 27 23 21 21 23 22 23 22 22 22 21
50 50 47 46 45 45 45 44 45 44 40 37 34 31 31 31 31 30 29 33 33 32 32 31 28 27 28 28 29 29 29 30 29 23 20 16 15 17 19 18 18 17 17